Time,TemperatureF,DewpointF,PressureIn,WindDirection,WindDirectionDegrees,WindSpeedMPH,WindSpeedGustMPH,Humidity,HourlyPrecipIn,Conditions,Clouds,dailyrainin,SoftwareType,DateUTC
2013-05-03 07:08:00,47.3,32.0,29.74,ESE,112,0.0,0.0,55,0.00,,---,0.00,VWS V13.01,2013-05-03 11:08:00,
2013-05-03 07:09:00,47.3,32.0,29.74,ESE,112,0.0,0.0,55,0.00,,---,0.00,VWS V13.01,2013-05-03 11:09:00,
2013-05-03 07:13:00,49.3,32.4,29.74,NE,45,0.0,1.3,52,0.00,,---,0.00,VWS V13.01,2013-05-03 11:13:00,
2013-05-03 07:14:00,49.3,32.4,29.74,NE,45,0.0,1.3,52,0.00,,---,0.00,VWS V13.01,2013-05-03 11:14:00,
2013-05-03 07:19:00,49.6,32.3,29.74,North,0,2.7,2.7,51,0.00,,---,0.00,VWS V13.01,2013-05-03 11:19:00,
2013-05-03 07:24:00,49.6,32.3,29.74,ENE,68,3.1,4.0,51,0.00,,---,0.00,VWS V13.01,2013-05-03 11:24:00,
2013-05-03 07:29:00,49.6,32.3,29.74,NW,315,1.3,1.3,51,0.00,,---,0.00,VWS V13.01,2013-05-03 11:29:00,
2013-05-03 07:34:00,49.6,32.3,29.74,North,0,2.5,2.5,51,0.00,,---,0.00,VWS V13.01,2013-05-03 11:34:00,
2013-05-03 07:39:00,50.2,32.3,29.74,WSW,248,3.1,3.1,50,0.00,,---,0.00,VWS V13.01,2013-05-03 11:39:00,
2013-05-03 07:44:00,50.2,32.3,29.74,West,270,2.0,2.0,50,0.00,,---,0.00,VWS V13.01,2013-05-03 11:44:00,
2013-05-03 07:45:00,50.2,32.3,29.74,NE,45,3.1,3.1,50,0.00,,---,0.00,VWS V13.01,2013-05-03 11:45:00,
2013-05-03 07:49:00,50.2,32.3,29.74,SSE,158,0.0,0.0,50,0.00,,---,0.00,VWS V13.01,2013-05-03 11:49:00,
2013-05-03 07:50:00,50.2,32.3,29.74,West,270,1.1,1.1,50,0.00,,---,0.00,VWS V13.01,2013-05-03 11:50:00,
2013-05-03 07:54:00,50.2,32.3,29.74,ENE,68,2.0,2.0,50,0.00,,---,0.00,VWS V13.01,2013-05-03 11:54:00,
2013-05-03 07:55:00,50.2,32.3,29.74,ENE,68,2.0,2.0,50,0.00,,---,0.00,VWS V13.01,2013-05-03 11:55:00,
2013-05-03 07:59:00,50.2,32.3,29.74,SSE,158,3.4,3.4,50,0.00,,---,0.00,VWS V13.01,2013-05-03 11:59:00,
2013-05-03 08:00:00,50.2,32.3,29.74,SSE,158,3.4,3.4,50,0.00,,---,0.00,VWS V13.01,2013-05-03 12:00:00,
2013-05-03 08:05:00,51.3,32.3,29.74,ESE,112,2.0,2.5,48,0.00,,---,0.00,VWS V13.01,2013-05-03 12:05:00,
2013-05-03 08:10:00,51.3,32.3,29.74,NNW,338,3.4,3.4,48,0.00,,---,0.00,VWS V13.01,2013-05-03 12:10:00,
2013-05-03 08:15:00,51.4,32.4,29.74,SW,225,0.0,0.0,48,0.00,,---,0.00,VWS V13.01,2013-05-03 12:15:00,
2013-05-03 08:16:00,51.4,32.4,29.74,SW,225,0.0,0.0,48,0.00,,---,0.00,VWS V13.01,2013-05-03 12:16:00,
2013-05-03 08:20:00,51.4,32.4,29.74,North,0,2.7,2.7,48,0.00,,---,0.00,VWS V13.01,2013-05-03 12:20:00,
2013-05-03 08:21:00,51.4,32.4,29.74,North,0,2.9,2.9,48,0.00,,---,0.00,VWS V13.01,2013-05-03 12:21:00,
2013-05-03 08:25:00,51.4,32.4,29.74,East,90,2.2,2.2,48,0.00,,---,0.00,VWS V13.01,2013-05-03 12:25:00,
2013-05-03 08:26:00,51.4,32.4,29.74,East,90,2.2,2.2,48,0.00,,---,0.00,VWS V13.01,2013-05-03 12:26:00,
2013-05-03 08:31:00,51.8,32.2,29.74,SSE,158,2.9,2.9,47,0.00,,---,0.00,VWS V13.01,2013-05-03 12:31:00,
2013-05-03 08:36:00,51.8,32.2,29.74,South,180,0.0,0.9,47,0.00,,---,0.00,VWS V13.01,2013-05-03 12:36:00,
2013-05-03 08:37:00,51.8,32.2,29.74,ESE,112,0.0,0.0,47,0.00,,---,0.00,VWS V13.01,2013-05-03 12:37:00,
2013-05-03 08:41:00,52.5,32.9,29.74,NE,45,1.1,1.1,47,0.00,,---,0.00,VWS V13.01,2013-05-03 12:41:00,
2013-05-03 08:43:00,52.5,32.9,29.74,ESE,112,0.0,1.1,47,0.00,,---,0.00,VWS V13.01,2013-05-03 12:43:00,
2013-05-03 08:46:00,52.7,33.0,29.74,NNE,22,1.6,4.3,47,0.00,,---,0.00,VWS V13.01,2013-05-03 12:46:00,
2013-05-03 08:47:00,52.7,33.0,29.74,NW,315,2.7,2.7,47,0.00,,---,0.00,VWS V13.01,2013-05-03 12:47:00,
2013-05-03 08:48:00,52.7,33.0,29.74,NW,315,2.7,2.7,47,0.00,,---,0.00,VWS V13.01,2013-05-03 12:48:00,
2013-05-03 08:51:00,52.7,33.0,29.74,North,0,1.6,1.6,47,0.00,,---,0.00,VWS V13.01,2013-05-03 12:51:00,
2013-05-03 08:52:00,52.7,33.0,29.74,North,0,1.6,1.6,47,0.00,,---,0.00,VWS V13.01,2013-05-03 12:52:00,
2013-05-03 08:53:00,52.7,33.0,29.74,NNW,338,2.0,2.0,47,0.00,,---,0.00,VWS V13.01,2013-05-03 12:53:00,
2013-05-03 08:56:00,52.9,33.2,29.74,North,0,0.9,0.9,47,0.00,,---,0.00,VWS V13.01,2013-05-03 12:56:00,
2013-05-03 08:57:00,52.9,33.2,29.74,SE,135,0.0,0.9,47,0.00,,---,0.00,VWS V13.01,2013-05-03 12:57:00,
2013-05-03 08:58:00,52.9,33.2,29.74,East,90,2.5,2.5,47,0.00,,---,0.00,VWS V13.01,2013-05-03 12:58:00,
2013-05-03 09:01:00,52.9,33.2,29.74,East,90,1.6,2.2,47,0.00,,---,0.00,VWS V13.01,2013-05-03 13:01:00,
2013-05-03 09:02:00,52.9,33.2,29.74,East,90,1.6,2.2,47,0.00,,---,0.00,VWS V13.01,2013-05-03 13:02:00,
2013-05-03 09:04:00,53.2,33.5,29.74,NE,45,2.0,2.0,47,0.00,,---,0.00,VWS V13.01,2013-05-03 13:04:00,
2013-05-03 09:07:00,53.4,33.7,29.74,SSE,158,2.7,2.7,47,0.00,,---,0.00,VWS V13.01,2013-05-03 13:07:00,
2013-05-03 09:09:00,53.4,33.7,29.74,South,180,0.0,0.0,47,0.00,,---,0.00,VWS V13.01,2013-05-03 13:09:00,
2013-05-03 09:12:00,53.6,33.3,29.74,NNW,338,4.7,4.7,46,0.00,,---,0.00,VWS V13.01,2013-05-03 13:12:00,
2013-05-03 09:14:00,53.6,33.3,29.74,SE,135,0.9,2.7,46,0.00,,---,0.00,VWS V13.01,2013-05-03 13:14:00,
2013-05-03 09:17:00,53.6,33.3,29.74,SSE,158,0.0,2.2,46,0.00,,---,0.00,VWS V13.01,2013-05-03 13:17:00,
2013-05-03 09:18:00,53.6,33.3,29.74,NNW,338,5.6,5.6,46,0.00,,---,0.00,VWS V13.01,2013-05-03 13:18:00,
2013-05-03 09:19:00,53.6,33.3,29.74,SW,225,2.0,2.0,46,0.00,,---,0.00,VWS V13.01,2013-05-03 13:19:00,
2013-05-03 09:22:00,54.3,34.0,29.74,SSE,158,0.9,0.9,46,0.00,,---,0.00,VWS V13.01,2013-05-03 13:22:00,
2013-05-03 09:23:00,54.3,34.0,29.74,ESE,112,2.0,2.0,46,0.00,,---,0.00,VWS V13.01,2013-05-03 13:23:00,
2013-05-03 09:24:00,54.3,34.0,29.74,East,90,1.6,1.6,46,0.00,,---,0.00,VWS V13.01,2013-05-03 13:24:00,
2013-05-03 09:27:00,54.3,34.0,29.74,NW,315,0.9,2.0,46,0.00,,---,0.00,VWS V13.01,2013-05-03 13:27:00,
2013-05-03 09:28:00,54.3,34.0,29.74,NW,315,0.9,2.0,46,0.00,,---,0.00,VWS V13.01,2013-05-03 13:28:00,
2013-05-03 09:29:00,54.3,34.0,29.74,SSW,202,1.6,1.6,46,0.00,,---,0.00,VWS V13.01,2013-05-03 13:29:00,
2013-05-03 09:32:00,54.3,34.0,29.74,East,90,1.6,1.6,46,0.00,,---,0.00,VWS V13.01,2013-05-03 13:32:00,
2013-05-03 09:33:00,54.3,34.0,29.74,South,180,0.0,1.6,46,0.00,,---,0.00,VWS V13.01,2013-05-03 13:33:00,
2013-05-03 09:34:00,54.3,34.0,29.74,SSE,158,2.0,2.0,46,0.00,,---,0.00,VWS V13.01,2013-05-03 13:34:00,
2013-05-03 09:37:00,54.3,34.0,29.74,SSW,202,0.0,0.0,46,0.00,,---,0.00,VWS V13.01,2013-05-03 13:37:00,
2013-05-03 09:38:00,54.3,34.0,29.74,SSE,158,1.6,1.6,46,0.00,,---,0.00,VWS V13.01,2013-05-03 13:38:00,
2013-05-03 09:39:00,54.3,34.0,29.74,SE,135,2.0,3.1,46,0.00,,---,0.00,VWS V13.01,2013-05-03 13:39:00,
2013-05-03 09:43:00,54.3,34.0,29.74,SE,135,0.0,1.6,46,0.00,,---,0.00,VWS V13.01,2013-05-03 13:43:00,
2013-05-03 09:45:00,54.3,34.0,29.74,SW,225,0.0,0.0,46,0.00,,---,0.00,VWS V13.01,2013-05-03 13:45:00,
2013-05-03 09:48:00,54.3,34.0,29.74,East,90,0.0,0.0,46,0.00,,---,0.00,VWS V13.01,2013-05-03 13:48:00,
2013-05-03 09:50:00,56.3,35.2,29.74,East,90,1.6,1.6,45,0.00,,---,0.00,VWS V13.01,2013-05-03 13:50:00,
2013-05-03 09:53:00,56.3,35.2,29.74,SSW,202,1.1,1.3,45,0.00,,---,0.00,VWS V13.01,2013-05-03 13:53:00,
2013-05-03 09:55:00,56.3,35.2,29.74,WSW,248,0.0,0.0,45,0.00,,---,0.00,VWS V13.01,2013-05-03 13:55:00,
2013-05-03 09:58:00,56.3,35.2,29.74,NE,45,1.1,1.1,45,0.00,,---,0.00,VWS V13.01,2013-05-03 13:58:00,
2013-05-03 09:59:00,56.3,35.2,29.74,East,90,0.0,1.1,45,0.00,,---,0.00,VWS V13.01,2013-05-03 13:59:00,
2013-05-03 10:00:00,56.5,35.4,29.74,East,90,2.5,2.5,45,0.00,,---,0.00,VWS V13.01,2013-05-03 14:00:00,
2013-05-03 10:03:00,56.5,35.4,29.74,West,270,2.2,2.2,45,0.00,,---,0.00,VWS V13.01,2013-05-03 14:03:00,
2013-05-03 10:04:00,56.5,35.4,29.74,East,90,2.5,2.5,45,0.00,,---,0.00,VWS V13.01,2013-05-03 14:04:00,
2013-05-03 10:06:00,56.5,35.4,29.74,SE,135,0.0,1.3,45,0.00,,---,0.00,VWS V13.01,2013-05-03 14:06:00,
2013-05-03 10:08:00,56.5,35.4,29.74,East,90,2.7,2.7,45,0.00,,---,0.00,VWS V13.01,2013-05-03 14:08:00,
2013-05-03 10:09:00,56.5,35.4,29.74,East,90,2.7,2.7,45,0.00,,---,0.00,VWS V13.01,2013-05-03 14:09:00,
2013-05-03 10:11:00,56.5,35.4,29.74,North,0,1.6,2.2,45,0.00,,---,0.00,VWS V13.01,2013-05-03 14:11:00,
2013-05-03 10:13:00,56.8,34.6,29.74,West,270,1.3,3.8,43,0.00,,---,0.00,VWS V13.01,2013-05-03 14:13:00,
2013-05-03 10:14:00,56.8,34.6,29.74,SE,135,0.0,1.3,43,0.00,,---,0.00,VWS V13.01,2013-05-03 14:14:00,
2013-05-03 10:15:00,56.8,34.6,29.74,SE,135,2.7,2.7,43,0.00,,---,0.00,VWS V13.01,2013-05-03 14:15:00,
2013-05-03 10:16:00,56.8,34.6,29.74,NNW,338,2.7,2.7,43,0.00,,---,0.00,VWS V13.01,2013-05-03 14:16:00,
2013-05-03 10:18:00,56.8,34.6,29.74,SE,135,1.3,1.3,43,0.00,,---,0.00,VWS V13.01,2013-05-03 14:18:00,
2013-05-03 10:19:00,56.8,34.6,29.74,East,90,1.3,1.3,43,0.00,,---,0.00,VWS V13.01,2013-05-03 14:19:00,
2013-05-03 10:20:00,56.8,34.6,29.74,North,0,2.9,2.9,43,0.00,,---,0.00,VWS V13.01,2013-05-03 14:20:00,
2013-05-03 10:21:00,56.8,34.6,29.74,NNW,338,2.7,2.7,43,0.00,,---,0.00,VWS V13.01,2013-05-03 14:21:00,
2013-05-03 10:23:00,56.8,34.6,29.74,East,90,2.9,4.3,43,0.00,,---,0.00,VWS V13.01,2013-05-03 14:23:00,
2013-05-03 10:24:00,56.8,34.6,29.74,NNE,22,1.3,2.9,43,0.00,,---,0.00,VWS V13.01,2013-05-03 14:24:00,
2013-05-03 10:25:00,56.8,34.6,29.74,NNE,22,1.3,2.9,43,0.00,,---,0.00,VWS V13.01,2013-05-03 14:25:00,
2013-05-03 10:26:00,56.8,34.6,29.74,East,90,3.4,3.4,43,0.00,,---,0.00,VWS V13.01,2013-05-03 14:26:00,
2013-05-03 10:28:00,56.8,34.6,29.74,NNE,22,2.0,2.0,43,0.00,,---,0.00,VWS V13.01,2013-05-03 14:28:00,
2013-05-03 10:29:00,56.8,34.6,29.74,ENE,68,4.0,4.0,43,0.00,,---,0.00,VWS V13.01,2013-05-03 14:29:00,
2013-05-03 10:30:00,56.8,34.6,29.74,ENE,68,4.0,4.0,43,0.00,,---,0.00,VWS V13.01,2013-05-03 14:30:00,
2013-05-03 10:31:00,56.8,34.6,29.74,East,90,1.6,1.6,43,0.00,,---,0.00,VWS V13.01,2013-05-03 14:31:00,
2013-05-03 10:33:00,56.8,34.6,29.74,SE,135,2.9,2.9,43,0.00,,---,0.00,VWS V13.01,2013-05-03 14:33:00,
2013-05-03 10:34:00,56.8,34.6,29.74,SE,135,2.9,2.9,43,0.00,,---,0.00,VWS V13.01,2013-05-03 14:34:00,
2013-05-03 10:35:00,56.8,34.6,29.74,SE,135,1.3,1.3,43,0.00,,---,0.00,VWS V13.01,2013-05-03 14:35:00,
2013-05-03 10:36:00,56.8,34.6,29.74,ENE,68,1.6,2.5,43,0.00,,---,0.00,VWS V13.01,2013-05-03 14:36:00,
2013-05-03 10:38:00,56.8,34.6,29.74,South,180,2.5,2.5,43,0.00,,---,0.00,VWS V13.01,2013-05-03 14:38:00,
2013-05-03 10:39:00,56.8,34.6,29.74,South,180,2.5,2.5,43,0.00,,---,0.00,VWS V13.01,2013-05-03 14:39:00,
2013-05-03 10:40:00,56.8,34.6,29.74,ESE,112,1.6,1.6,43,0.00,,---,0.00,VWS V13.01,2013-05-03 14:40:00,
2013-05-03 10:41:00,56.8,34.6,29.74,SSW,202,2.9,2.9,43,0.00,,---,0.00,VWS V13.01,2013-05-03 14:41:00,
2013-05-03 10:44:00,58.5,36.1,29.74,SSW,202,2.7,2.7,43,0.00,,---,0.00,VWS V13.01,2013-05-03 14:44:00,
2013-05-03 10:45:00,58.5,36.1,29.74,ESE,112,2.7,2.7,43,0.00,,---,0.00,VWS V13.01,2013-05-03 14:45:00,
2013-05-03 10:46:00,58.5,36.1,29.74,NE,45,0.0,2.7,43,0.00,,---,0.00,VWS V13.01,2013-05-03 14:46:00,
2013-05-03 10:49:00,58.5,36.1,29.74,West,270,1.1,2.5,43,0.00,,---,0.00,VWS V13.01,2013-05-03 14:49:00,
2013-05-03 10:50:00,58.5,36.1,29.74,NE,45,1.1,1.1,43,0.00,,---,0.00,VWS V13.01,2013-05-03 14:50:00,
2013-05-03 10:51:00,58.5,36.1,29.74,NE,45,1.1,1.1,43,0.00,,---,0.00,VWS V13.01,2013-05-03 14:51:00,
2013-05-03 10:54:00,59.0,36.0,29.74,SE,135,0.9,0.9,42,0.00,,---,0.00,VWS V13.01,2013-05-03 14:54:00,
2013-05-03 10:55:00,59.0,36.0,29.74,ENE,68,2.7,2.7,42,0.00,,---,0.00,VWS V13.01,2013-05-03 14:55:00,
2013-05-03 10:56:00,59.0,36.0,29.74,West,270,0.0,0.0,42,0.00,,---,0.00,VWS V13.01,2013-05-03 14:56:00,
2013-05-03 10:57:00,59.0,36.0,29.74,SSW,202,1.6,1.6,42,0.00,,---,0.00,VWS V13.01,2013-05-03 14:57:00,
2013-05-03 10:59:00,59.0,36.0,29.74,East,90,3.1,3.1,42,0.00,,---,0.00,VWS V13.01,2013-05-03 14:59:00,
2013-05-03 11:00:00,59.0,36.0,29.74,East,90,3.1,3.1,42,0.00,,---,0.00,VWS V13.01,2013-05-03 15:00:00,
2013-05-03 11:01:00,59.0,36.0,29.74,South,180,1.1,1.1,42,0.00,,---,0.00,VWS V13.01,2013-05-03 15:01:00,
2013-05-03 11:02:00,59.0,36.0,29.74,NNW,338,1.3,2.0,42,0.00,,---,0.00,VWS V13.01,2013-05-03 15:02:00,
2013-05-03 11:04:00,59.0,36.0,29.74,ESE,112,1.3,2.0,42,0.00,,---,0.00,VWS V13.01,2013-05-03 15:04:00,
2013-05-03 11:05:00,59.0,36.0,29.74,East,90,0.0,1.3,42,0.00,,---,0.00,VWS V13.01,2013-05-03 15:05:00,
2013-05-03 11:06:00,59.4,35.7,29.74,NW,315,1.1,1.1,41,0.00,,---,0.00,VWS V13.01,2013-05-03 15:06:00,
2013-05-03 11:08:00,59.4,35.7,29.74,South,180,2.9,2.9,41,0.00,,---,0.00,VWS V13.01,2013-05-03 15:08:00,
2013-05-03 11:10:00,59.4,35.7,29.74,ENE,68,2.2,2.2,41,0.00,,---,0.00,VWS V13.01,2013-05-03 15:10:00,
2013-05-03 11:12:00,59.4,35.7,29.74,East,90,4.0,4.0,41,0.00,,---,0.00,VWS V13.01,2013-05-03 15:12:00,
2013-05-03 11:13:00,59.4,35.7,29.74,NNW,338,1.3,1.3,41,0.00,,---,0.00,VWS V13.01,2013-05-03 15:13:00,
2013-05-03 11:15:00,59.4,35.7,29.74,SE,135,0.0,3.4,41,0.00,,---,0.00,VWS V13.01,2013-05-03 15:15:00,
2013-05-03 11:17:00,59.4,35.7,29.74,NW,315,2.0,2.0,41,0.00,,---,0.00,VWS V13.01,2013-05-03 15:17:00,
2013-05-03 11:18:00,59.4,35.7,29.74,East,90,2.0,4.0,41,0.00,,---,0.00,VWS V13.01,2013-05-03 15:18:00,
2013-05-03 11:20:00,59.4,35.7,29.74,WNW,292,2.0,2.0,41,0.00,,---,0.00,VWS V13.01,2013-05-03 15:20:00,
2013-05-03 11:22:00,59.5,34.6,29.74,East,90,1.3,1.3,39,0.00,,---,0.00,VWS V13.01,2013-05-03 15:22:00,
2013-05-03 11:23:00,59.5,34.6,29.74,ESE,112,2.0,3.6,39,0.00,,---,0.00,VWS V13.01,2013-05-03 15:23:00,
2013-05-03 11:25:00,59.5,34.6,29.74,East,90,1.6,1.6,39,0.00,,---,0.00,VWS V13.01,2013-05-03 15:25:00,
2013-05-03 11:26:00,59.5,34.6,29.74,East,90,1.6,1.6,39,0.00,,---,0.00,VWS V13.01,2013-05-03 15:26:00,
2013-05-03 11:27:00,59.5,34.6,29.74,East,90,2.7,2.7,39,0.00,,---,0.00,VWS V13.01,2013-05-03 15:27:00,
2013-05-03 11:29:00,59.5,34.6,29.74,NNW,338,2.9,2.9,39,0.00,,---,0.00,VWS V13.01,2013-05-03 15:29:00,
2013-05-03 11:30:00,59.5,34.6,29.74,NE,45,2.5,4.3,39,0.00,,---,0.00,VWS V13.01,2013-05-03 15:30:00,
2013-05-03 11:31:00,59.5,34.6,29.74,NNW,338,2.9,2.9,39,0.00,,---,0.00,VWS V13.01,2013-05-03 15:31:00,
2013-05-03 11:32:00,59.5,34.6,29.71,NNW,338,2.5,2.5,39,0.00,,---,0.00,VWS V13.01,2013-05-03 15:32:00,
2013-05-03 11:34:00,59.5,34.6,29.71,East,90,2.0,2.0,39,0.00,,---,0.00,VWS V13.01,2013-05-03 15:34:00,
2013-05-03 11:35:00,59.5,34.6,29.71,ESE,112,0.0,0.0,39,0.00,,---,0.00,VWS V13.01,2013-05-03 15:35:00,
2013-05-03 11:36:00,60.1,35.1,29.71,NW,315,0.9,0.9,39,0.00,,---,0.00,VWS V13.01,2013-05-03 15:36:00,
2013-05-03 11:37:00,60.1,35.1,29.71,North,0,3.1,3.1,39,0.00,,---,0.00,VWS V13.01,2013-05-03 15:37:00,
2013-05-03 11:39:00,60.1,35.1,29.71,NNW,338,3.1,3.1,39,0.00,,---,0.00,VWS V13.01,2013-05-03 15:39:00,
2013-05-03 11:40:00,60.1,35.1,29.71,ENE,68,3.6,3.6,39,0.00,,---,0.00,VWS V13.01,2013-05-03 15:40:00,
2013-05-03 11:41:00,60.1,35.1,29.71,ENE,68,3.6,3.6,39,0.00,,---,0.00,VWS V13.01,2013-05-03 15:41:00,
2013-05-03 11:42:00,60.1,35.1,29.71,NNE,22,2.7,2.7,39,0.00,,---,0.00,VWS V13.01,2013-05-03 15:42:00,
2013-05-03 11:44:00,60.1,35.1,29.71,SE,135,0.0,2.0,39,0.00,,---,0.00,VWS V13.01,2013-05-03 15:44:00,
2013-05-03 11:45:00,60.1,35.1,29.71,SSE,158,1.6,1.6,39,0.00,,---,0.00,VWS V13.01,2013-05-03 15:45:00,
2013-05-03 11:46:00,60.1,35.1,29.71,WNW,292,2.2,2.2,39,0.00,,---,0.00,VWS V13.01,2013-05-03 15:46:00,
2013-05-03 11:47:00,60.1,35.1,29.71,WNW,292,2.2,2.2,39,0.00,,---,0.00,VWS V13.01,2013-05-03 15:47:00,
2013-05-03 11:49:00,60.1,35.1,29.71,East,90,3.1,3.8,39,0.00,,---,0.00,VWS V13.01,2013-05-03 15:49:00,
2013-05-03 11:51:00,60.1,35.1,29.71,NNW,338,2.9,2.9,39,0.00,,---,0.00,VWS V13.01,2013-05-03 15:51:00,
2013-05-03 11:52:00,60.1,35.1,29.71,NNE,22,3.1,3.6,39,0.00,,---,0.00,VWS V13.01,2013-05-03 15:52:00,
2013-05-03 11:54:00,60.1,35.1,29.71,East,90,3.6,3.6,39,0.00,,---,0.00,VWS V13.01,2013-05-03 15:54:00,
2013-05-03 11:56:00,60.4,34.7,29.71,NNE,22,0.0,0.0,38,0.00,,---,0.00,VWS V13.01,2013-05-03 15:56:00,
2013-05-03 11:57:00,60.4,34.7,29.71,South,180,2.5,2.5,38,0.00,,---,0.00,VWS V13.01,2013-05-03 15:57:00,
2013-05-03 11:58:00,60.4,34.7,29.71,SSW,202,2.0,2.0,38,0.00,,---,0.00,VWS V13.01,2013-05-03 15:58:00,
2013-05-03 11:59:00,61.0,35.2,29.71,WSW,248,0.0,2.0,38,0.00,,---,0.00,VWS V13.01,2013-05-03 15:59:00,
2013-05-03 12:01:00,61.0,35.2,29.71,SSE,158,0.0,0.0,38,0.00,,---,0.00,VWS V13.01,2013-05-03 16:01:00,
2013-05-03 12:02:00,61.0,35.2,29.71,SSE,158,0.0,0.0,38,0.00,,---,0.00,VWS V13.01,2013-05-03 16:02:00,
2013-05-03 12:03:00,61.0,35.2,29.71,SSE,158,0.9,0.9,38,0.00,,---,0.00,VWS V13.01,2013-05-03 16:03:00,
2013-05-03 12:04:00,61.0,35.2,29.71,SSE,158,2.0,2.5,38,0.00,,---,0.00,VWS V13.01,2013-05-03 16:04:00,
2013-05-03 12:06:00,61.0,35.2,29.71,SSE,158,2.5,2.5,38,0.00,,---,0.00,VWS V13.01,2013-05-03 16:06:00,
2013-05-03 12:07:00,61.0,35.2,29.71,SSE,158,2.5,2.5,38,0.00,,---,0.00,VWS V13.01,2013-05-03 16:07:00,
2013-05-03 12:08:00,61.0,35.2,29.71,SE,135,2.0,2.5,38,0.00,,---,0.00,VWS V13.01,2013-05-03 16:08:00,
2013-05-03 12:09:00,61.0,35.2,29.71,ESE,112,2.0,2.0,38,0.00,,---,0.00,VWS V13.01,2013-05-03 16:09:00,
2013-05-03 12:11:00,61.0,35.2,29.71,NE,45,2.5,2.5,38,0.00,,---,0.00,VWS V13.01,2013-05-03 16:11:00,
2013-05-03 12:12:00,61.0,35.2,29.71,NNE,22,2.2,2.2,38,0.00,,---,0.00,VWS V13.01,2013-05-03 16:12:00,
2013-05-03 12:13:00,61.0,35.2,29.71,East,90,0.9,0.9,38,0.00,,---,0.00,VWS V13.01,2013-05-03 16:13:00,
2013-05-03 12:14:00,61.0,35.2,29.71,SE,135,0.0,1.6,38,0.00,,---,0.00,VWS V13.01,2013-05-03 16:14:00,
2013-05-03 12:16:00,62.8,37.5,29.71,ENE,68,3.4,3.8,39,0.00,,---,0.00,VWS V13.01,2013-05-03 16:16:00,
2013-05-03 12:17:00,62.8,37.5,29.71,ENE,68,3.4,3.4,39,0.00,,---,0.00,VWS V13.01,2013-05-03 16:17:00,
2013-05-03 12:18:00,62.8,37.5,29.71,East,90,2.2,2.2,39,0.00,,---,0.00,VWS V13.01,2013-05-03 16:18:00,
2013-05-03 12:19:00,62.8,37.5,29.71,East,90,3.1,3.1,39,0.00,,---,0.00,VWS V13.01,2013-05-03 16:19:00,
2013-05-03 12:21:00,62.8,37.5,29.71,SSW,202,2.5,2.5,39,0.00,,---,0.00,VWS V13.01,2013-05-03 16:21:00,
2013-05-03 12:22:00,62.8,37.5,29.71,SSW,202,0.9,2.5,39,0.00,,---,0.00,VWS V13.01,2013-05-03 16:22:00,
2013-05-03 12:23:00,62.8,37.5,29.71,SE,135,0.0,0.9,39,0.00,,---,0.00,VWS V13.01,2013-05-03 16:23:00,
2013-05-03 12:24:00,62.8,37.5,29.71,SE,135,0.0,0.0,39,0.00,,---,0.00,VWS V13.01,2013-05-03 16:24:00,
2013-05-03 12:25:00,62.8,37.5,29.71,NNE,22,2.0,2.0,39,0.00,,---,0.00,VWS V13.01,2013-05-03 16:25:00,
2013-05-03 12:27:00,62.8,37.5,29.71,North,0,3.1,3.1,39,0.00,,---,0.00,VWS V13.01,2013-05-03 16:27:00,
2013-05-03 12:28:00,62.8,37.5,29.68,ENE,68,3.8,3.8,39,0.00,,---,0.00,VWS V13.01,2013-05-03 16:28:00,
2013-05-03 12:29:00,62.8,37.5,29.68,WNW,292,3.6,3.6,39,0.00,,---,0.00,VWS V13.01,2013-05-03 16:29:00,
2013-05-03 12:30:00,62.6,36.0,29.68,SSW,202,2.5,2.5,37,0.00,,---,0.00,VWS V13.01,2013-05-03 16:30:00,
2013-05-03 12:32:00,62.6,36.0,29.68,ENE,68,1.3,1.3,37,0.00,,---,0.00,VWS V13.01,2013-05-03 16:32:00,
2013-05-03 12:33:00,62.8,36.2,29.68,North,0,1.1,3.6,37,0.00,,---,0.00,VWS V13.01,2013-05-03 16:33:00,
2013-05-03 12:34:00,62.8,36.2,29.68,North,0,1.1,1.1,37,0.00,,---,0.00,VWS V13.01,2013-05-03 16:34:00,
2013-05-03 12:35:00,62.8,36.2,29.68,SSE,158,1.6,1.6,37,0.00,,---,0.00,VWS V13.01,2013-05-03 16:35:00,
2013-05-03 12:37:00,62.8,36.2,29.68,ESE,112,2.9,2.9,37,0.00,,---,0.00,VWS V13.01,2013-05-03 16:37:00,
2013-05-03 12:38:00,62.6,36.0,29.68,NNE,22,3.4,3.4,37,0.00,,---,0.00,VWS V13.01,2013-05-03 16:38:00,
2013-05-03 12:39:00,62.6,36.0,29.68,North,0,1.6,3.4,37,0.00,,---,0.00,VWS V13.01,2013-05-03 16:39:00,
2013-05-03 12:40:00,62.6,36.0,29.68,ESE,112,0.9,1.6,37,0.00,,---,0.00,VWS V13.01,2013-05-03 16:40:00,
2013-05-03 12:42:00,62.6,36.0,29.68,NE,45,2.5,2.5,37,0.00,,---,0.00,VWS V13.01,2013-05-03 16:42:00,
2013-05-03 12:43:00,62.4,35.8,29.68,East,90,0.0,2.5,37,0.00,,---,0.00,VWS V13.01,2013-05-03 16:43:00,
2013-05-03 12:44:00,62.4,35.8,29.68,NE,45,3.4,3.4,37,0.00,,---,0.00,VWS V13.01,2013-05-03 16:44:00,
2013-05-03 12:45:00,62.4,35.8,29.68,WNW,292,2.9,3.4,37,0.00,,---,0.00,VWS V13.01,2013-05-03 16:45:00,
2013-05-03 12:47:00,62.4,35.8,29.68,West,270,2.2,2.2,37,0.00,,---,0.00,VWS V13.01,2013-05-03 16:47:00,
2013-05-03 12:48:00,62.4,35.8,29.68,SSW,202,0.0,2.2,37,0.00,,---,0.00,VWS V13.01,2013-05-03 16:48:00,
2013-05-03 12:49:00,62.4,35.8,29.68,ESE,112,2.5,2.5,37,0.00,,---,0.00,VWS V13.01,2013-05-03 16:49:00,
2013-05-03 12:50:00,62.4,35.8,29.68,SSW,202,2.2,2.2,37,0.00,,---,0.00,VWS V13.01,2013-05-03 16:50:00,
2013-05-03 12:52:00,63.9,37.8,29.68,ESE,112,2.0,2.0,38,0.00,,---,0.00,VWS V13.01,2013-05-03 16:52:00,
2013-05-03 12:53:00,63.9,37.8,29.68,ESE,112,2.0,2.0,38,0.00,,---,0.00,VWS V13.01,2013-05-03 16:53:00,
2013-05-03 12:54:00,63.9,37.8,29.68,ENE,68,2.7,2.7,38,0.00,,---,0.00,VWS V13.01,2013-05-03 16:54:00,
2013-05-03 12:56:00,63.9,37.8,29.68,SSE,158,2.0,2.0,38,0.00,,---,0.00,VWS V13.01,2013-05-03 16:56:00,
2013-05-03 12:58:00,64.4,38.3,29.68,SSE,158,4.3,4.3,38,0.00,,---,0.00,VWS V13.01,2013-05-03 16:58:00,
2013-05-03 12:59:00,64.4,38.3,29.68,South,180,6.9,6.9,38,0.00,,---,0.00,VWS V13.01,2013-05-03 16:59:00,
2013-05-03 13:01:00,64.4,38.3,29.68,South,180,2.0,2.0,38,0.00,,---,0.00,VWS V13.01,2013-05-03 17:01:00,
2013-05-03 13:03:00,64.4,38.3,29.68,East,90,2.5,2.5,38,0.00,,---,0.00,VWS V13.01,2013-05-03 17:03:00,
2013-05-03 13:04:00,64.4,38.3,29.68,East,90,2.0,2.0,38,0.00,,---,0.00,VWS V13.01,2013-05-03 17:04:00,
2013-05-03 13:06:00,64.4,38.3,29.68,SSE,158,1.1,2.0,38,0.00,,---,0.00,VWS V13.01,2013-05-03 17:06:00,
2013-05-03 13:08:00,64.8,39.2,29.68,East,90,1.1,1.3,39,0.00,,---,0.00,VWS V13.01,2013-05-03 17:08:00,
2013-05-03 13:09:00,64.8,39.2,29.68,SE,135,1.6,1.6,39,0.00,,---,0.00,VWS V13.01,2013-05-03 17:09:00,
2013-05-03 13:11:00,64.8,39.2,29.68,ENE,68,2.7,2.7,39,0.00,,---,0.00,VWS V13.01,2013-05-03 17:11:00,
2013-05-03 13:13:00,64.8,39.2,29.68,SE,135,3.4,3.4,39,0.00,,---,0.00,VWS V13.01,2013-05-03 17:13:00,
2013-05-03 13:14:00,64.8,39.2,29.68,NNE,22,0.0,3.4,39,0.00,,---,0.00,VWS V13.01,2013-05-03 17:14:00,
2013-05-03 13:16:00,64.8,39.2,29.68,NNE,22,1.6,1.6,39,0.00,,---,0.00,VWS V13.01,2013-05-03 17:16:00,
2013-05-03 13:18:00,64.6,37.8,29.68,SE,135,2.0,2.0,37,0.00,,---,0.00,VWS V13.01,2013-05-03 17:18:00,
2013-05-03 13:19:00,64.6,37.8,29.68,SE,135,0.0,2.0,37,0.00,,---,0.00,VWS V13.01,2013-05-03 17:19:00,
2013-05-03 13:21:00,64.6,37.8,29.68,SSE,158,5.6,5.6,37,0.00,,---,0.00,VWS V13.01,2013-05-03 17:21:00,
2013-05-03 13:23:00,65.1,38.9,29.68,East,90,1.3,1.3,38,0.00,,---,0.00,VWS V13.01,2013-05-03 17:23:00,
2013-05-03 13:24:00,65.1,38.9,29.68,East,90,1.3,1.3,38,0.00,,---,0.00,VWS V13.01,2013-05-03 17:24:00,
2013-05-03 13:25:00,65.1,38.9,29.68,NNE,22,1.6,1.6,38,0.00,,---,0.00,VWS V13.01,2013-05-03 17:25:00,
2013-05-03 13:27:00,65.1,38.9,29.68,ENE,68,2.7,2.7,38,0.00,,---,0.00,VWS V13.01,2013-05-03 17:27:00,
2013-05-03 13:28:00,65.1,38.9,29.68,SSE,158,1.3,1.3,38,0.00,,---,0.00,VWS V13.01,2013-05-03 17:28:00,
2013-05-03 13:29:00,65.1,38.9,29.68,ENE,68,2.7,2.7,38,0.00,,---,0.00,VWS V13.01,2013-05-03 17:29:00,
2013-05-03 13:30:00,65.1,38.9,29.68,West,270,0.9,2.7,38,0.00,,---,0.00,VWS V13.01,2013-05-03 17:30:00,
2013-05-03 13:33:00,65.1,38.9,29.68,West,270,2.0,2.0,38,0.00,,---,0.00,VWS V13.01,2013-05-03 17:33:00,
2013-05-03 13:34:00,65.1,38.9,29.68,WNW,292,1.3,2.0,38,0.00,,---,0.00,VWS V13.01,2013-05-03 17:34:00,
2013-05-03 13:35:00,65.1,38.9,29.68,SW,225,0.9,0.9,38,0.00,,---,0.00,VWS V13.01,2013-05-03 17:35:00,
2013-05-03 13:36:00,65.1,38.9,29.68,NNE,22,0.9,0.9,38,0.00,,---,0.00,VWS V13.01,2013-05-03 17:36:00,
2013-05-03 13:38:00,65.1,38.9,29.68,East,90,1.6,1.6,38,0.00,,---,0.00,VWS V13.01,2013-05-03 17:38:00,
2013-05-03 13:39:00,65.1,38.9,29.68,East,90,1.6,1.6,38,0.00,,---,0.00,VWS V13.01,2013-05-03 17:39:00,
2013-05-03 13:40:00,65.1,38.9,29.68,ESE,112,2.2,2.2,38,0.00,,---,0.00,VWS V13.01,2013-05-03 17:40:00,
2013-05-03 13:41:00,65.1,38.9,29.68,North,0,2.5,2.5,38,0.00,,---,0.00,VWS V13.01,2013-05-03 17:41:00,
2013-05-03 13:43:00,65.3,37.7,29.68,East,90,1.3,3.6,36,0.00,,---,0.00,VWS V13.01,2013-05-03 17:43:00,
2013-05-03 13:44:00,65.3,37.7,29.68,East,90,1.3,1.3,36,0.00,,---,0.00,VWS V13.01,2013-05-03 17:44:00,
2013-05-03 13:45:00,65.5,37.8,29.68,NE,45,2.9,2.9,36,0.00,,---,0.00,VWS V13.01,2013-05-03 17:45:00,
2013-05-03 13:46:00,65.5,37.8,29.68,ESE,112,1.3,2.9,36,0.00,,---,0.00,VWS V13.01,2013-05-03 17:46:00,
2013-05-03 13:48:00,65.5,37.8,29.68,North,0,3.1,3.1,36,0.00,,---,0.00,VWS V13.01,2013-05-03 17:48:00,
2013-05-03 13:49:00,65.1,37.5,29.68,NW,315,0.0,0.0,36,0.00,,---,0.00,VWS V13.01,2013-05-03 17:49:00,
2013-05-03 13:50:00,65.1,37.5,29.68,NNW,338,2.5,2.5,36,0.00,,---,0.00,VWS V13.01,2013-05-03 17:50:00,
2013-05-03 13:51:00,65.1,37.5,29.68,ENE,68,2.7,2.7,36,0.00,,---,0.00,VWS V13.01,2013-05-03 17:51:00,
2013-05-03 13:53:00,65.1,37.5,29.68,South,180,0.9,2.9,36,0.00,,---,0.00,VWS V13.01,2013-05-03 17:53:00,
2013-05-03 13:54:00,65.1,37.5,29.68,South,180,0.9,0.9,36,0.00,,---,0.00,VWS V13.01,2013-05-03 17:54:00,
2013-05-03 13:55:00,65.7,38.0,29.68,WSW,248,1.6,2.5,36,0.00,,---,0.00,VWS V13.01,2013-05-03 17:55:00,
2013-05-03 13:56:00,65.7,38.0,29.68,SW,225,0.0,1.6,36,0.00,,---,0.00,VWS V13.01,2013-05-03 17:56:00,
2013-05-03 13:58:00,65.8,38.9,29.68,East,90,0.0,0.0,37,0.00,,---,0.00,VWS V13.01,2013-05-03 17:58:00,
2013-05-03 13:59:00,65.8,38.9,29.68,East,90,1.1,1.1,37,0.00,,---,0.00,VWS V13.01,2013-05-03 17:59:00,
2013-05-03 14:00:00,65.8,38.9,29.68,South,180,0.9,2.0,37,0.00,,---,0.00,VWS V13.01,2013-05-03 18:00:00,
2013-05-03 14:01:00,66.0,39.0,29.68,South,180,0.9,0.9,37,0.00,,---,0.00,VWS V13.01,2013-05-03 18:01:00,
2013-05-03 14:03:00,66.2,38.5,29.68,South,180,0.0,2.0,36,0.00,,---,0.00,VWS V13.01,2013-05-03 18:03:00,
2013-05-03 14:04:00,66.2,38.5,29.68,South,180,0.0,0.0,36,0.00,,---,0.00,VWS V13.01,2013-05-03 18:04:00,
2013-05-03 14:06:00,66.2,37.8,29.68,East,90,2.0,2.0,35,0.00,,---,0.00,VWS V13.01,2013-05-03 18:06:00,
2013-05-03 14:09:00,66.2,37.8,29.68,NNE,22,2.5,2.5,35,0.00,,---,0.00,VWS V13.01,2013-05-03 18:09:00,
2013-05-03 14:11:00,66.0,38.3,29.68,SSE,158,1.6,2.7,36,0.00,,---,0.00,VWS V13.01,2013-05-03 18:11:00,
2013-05-03 14:12:00,66.0,38.3,29.68,WSW,248,1.3,1.3,36,0.00,,---,0.00,VWS V13.01,2013-05-03 18:12:00,
2013-05-03 14:14:00,66.0,38.3,29.68,NNW,338,0.0,0.0,36,0.00,,---,0.00,VWS V13.01,2013-05-03 18:14:00,
2013-05-03 14:16:00,66.2,37.8,29.68,SSW,202,0.0,0.9,35,0.00,,---,0.00,VWS V13.01,2013-05-03 18:16:00,
2013-05-03 14:17:00,66.0,37.6,29.68,SSW,202,0.0,0.0,35,0.00,,---,0.00,VWS V13.01,2013-05-03 18:17:00,
2013-05-03 14:19:00,65.8,37.5,29.68,NW,315,2.5,2.5,35,0.00,,---,0.00,VWS V13.01,2013-05-03 18:19:00,
2013-05-03 14:21:00,65.5,37.1,29.68,South,180,0.0,2.0,35,0.00,,---,0.00,VWS V13.01,2013-05-03 18:21:00,
2013-05-03 14:22:00,65.5,37.1,29.68,East,90,2.7,2.7,35,0.00,,---,0.00,VWS V13.01,2013-05-03 18:22:00,
2013-05-03 14:24:00,65.5,37.1,29.68,NE,45,2.0,2.7,35,0.00,,---,0.00,VWS V13.01,2013-05-03 18:24:00,
2013-05-03 14:26:00,65.5,37.1,29.68,SE,135,0.0,0.9,35,0.00,,---,0.00,VWS V13.01,2013-05-03 18:26:00,
2013-05-03 14:27:00,65.5,37.1,29.68,WNW,292,1.1,1.1,35,0.00,,---,0.00,VWS V13.01,2013-05-03 18:27:00,
2013-05-03 14:29:00,65.5,37.1,29.68,NW,315,0.0,0.0,35,0.00,,---,0.00,VWS V13.01,2013-05-03 18:29:00,
2013-05-03 14:31:00,65.5,37.1,29.68,East,90,2.9,2.9,35,0.00,,---,0.00,VWS V13.01,2013-05-03 18:31:00,
2013-05-03 14:32:00,65.5,37.1,29.68,East,90,2.7,2.9,35,0.00,,---,0.00,VWS V13.01,2013-05-03 18:32:00,
2013-05-03 14:34:00,65.5,37.1,29.68,SE,135,0.9,0.9,35,0.00,,---,0.00,VWS V13.01,2013-05-03 18:34:00,
2013-05-03 14:35:00,65.5,37.1,29.68,SE,135,0.9,0.9,35,0.00,,---,0.00,VWS V13.01,2013-05-03 18:35:00,
2013-05-03 14:36:00,65.5,37.1,29.68,East,90,1.6,1.6,35,0.00,,---,0.00,VWS V13.01,2013-05-03 18:36:00,
2013-05-03 14:38:00,65.5,37.1,29.68,ESE,112,2.7,2.7,35,0.00,,---,0.00,VWS V13.01,2013-05-03 18:38:00,
2013-05-03 14:39:00,66.6,38.1,29.68,East,90,0.9,2.2,35,0.00,,---,0.00,VWS V13.01,2013-05-03 18:39:00,
2013-05-03 14:40:00,66.6,38.1,29.68,East,90,0.9,0.9,35,0.00,,---,0.00,VWS V13.01,2013-05-03 18:40:00,
2013-05-03 14:41:00,66.6,38.1,29.68,NNE,22,1.6,3.4,35,0.00,,---,0.00,VWS V13.01,2013-05-03 18:41:00,
2013-05-03 14:43:00,66.6,38.1,29.68,NNE,22,1.6,1.6,35,0.00,,---,0.00,VWS V13.01,2013-05-03 18:43:00,
2013-05-03 14:44:00,66.6,38.1,29.68,North,0,2.9,2.9,35,0.00,,---,0.00,VWS V13.01,2013-05-03 18:44:00,
2013-05-03 14:45:00,66.2,37.8,29.68,SSE,158,0.0,0.9,35,0.00,,---,0.00,VWS V13.01,2013-05-03 18:45:00,
2013-05-03 14:46:00,66.2,37.8,29.68,SSE,158,0.0,0.0,35,0.00,,---,0.00,VWS V13.01,2013-05-03 18:46:00,
2013-05-03 14:48:00,66.2,37.8,29.65,East,90,2.5,2.5,35,0.00,,---,0.00,VWS V13.01,2013-05-03 18:48:00,
2013-05-03 14:50:00,66.2,37.8,29.65,SSE,158,2.7,2.7,35,0.00,,---,0.00,VWS V13.01,2013-05-03 18:50:00,
2013-05-03 14:51:00,66.2,37.8,29.65,NNW,338,0.0,4.9,35,0.00,,---,0.00,VWS V13.01,2013-05-03 18:51:00,
2013-05-03 14:53:00,66.2,37.8,29.65,SSE,158,3.4,3.4,35,0.00,,---,0.00,VWS V13.01,2013-05-03 18:53:00,
2013-05-03 14:54:00,66.6,38.1,29.65,SSW,202,2.2,3.4,35,0.00,,---,0.00,VWS V13.01,2013-05-03 18:54:00,
2013-05-03 14:55:00,66.6,38.1,29.65,WSW,248,0.0,2.2,35,0.00,,---,0.00,VWS V13.01,2013-05-03 18:55:00,
2013-05-03 14:57:00,66.6,38.1,29.65,ESE,112,1.3,1.3,35,0.00,,---,0.00,VWS V13.01,2013-05-03 18:57:00,
2013-05-03 14:58:00,67.1,38.6,29.65,South,180,0.0,0.0,35,0.00,,---,0.00,VWS V13.01,2013-05-03 18:58:00,
2013-05-03 15:00:00,67.1,38.6,29.65,SSW,202,0.0,0.0,35,0.00,,---,0.00,VWS V13.01,2013-05-03 19:00:00,
2013-05-03 15:02:00,67.1,38.6,29.65,ESE,112,1.6,1.6,35,0.00,,---,0.00,VWS V13.01,2013-05-03 19:02:00,
2013-05-03 15:03:00,67.1,38.6,29.65,ESE,112,1.1,1.1,35,0.00,,---,0.00,VWS V13.01,2013-05-03 19:03:00,
2013-05-03 15:05:00,67.1,38.6,29.65,ENE,68,1.3,2.5,35,0.00,,---,0.00,VWS V13.01,2013-05-03 19:05:00,
2013-05-03 15:07:00,67.1,38.6,29.65,SSE,158,0.0,1.3,35,0.00,,---,0.00,VWS V13.01,2013-05-03 19:07:00,
2013-05-03 15:08:00,67.3,38.7,29.65,WSW,248,2.5,2.5,35,0.00,,---,0.00,VWS V13.01,2013-05-03 19:08:00,
2013-05-03 15:10:00,67.3,39.4,29.65,North,0,3.8,3.8,36,0.00,,---,0.00,VWS V13.01,2013-05-03 19:10:00,
2013-05-03 15:11:00,67.3,39.4,29.65,North,0,5.4,5.4,36,0.00,,---,0.00,VWS V13.01,2013-05-03 19:11:00,
2013-05-03 15:12:00,67.3,39.4,29.65,North,0,3.1,5.4,36,0.00,,---,0.00,VWS V13.01,2013-05-03 19:12:00,
2013-05-03 15:13:00,67.3,39.4,29.65,NNW,338,1.6,2.9,36,0.00,,---,0.00,VWS V13.01,2013-05-03 19:13:00,
2013-05-03 15:15:00,67.3,39.4,29.65,SW,225,2.2,2.2,36,0.00,,---,0.00,VWS V13.01,2013-05-03 19:15:00,
2013-05-03 15:16:00,67.3,39.4,29.65,SSW,202,0.0,0.0,36,0.00,,---,0.00,VWS V13.01,2013-05-03 19:16:00,
2013-05-03 15:17:00,67.1,39.3,29.65,SSW,202,0.0,0.0,36,0.00,,---,0.00,VWS V13.01,2013-05-03 19:17:00,
2013-05-03 15:19:00,67.1,39.3,29.65,SSW,202,2.0,2.0,36,0.00,,---,0.00,VWS V13.01,2013-05-03 19:19:00,
2013-05-03 15:20:00,67.1,39.3,29.65,SW,225,1.6,2.0,36,0.00,,---,0.00,VWS V13.01,2013-05-03 19:20:00,
2013-05-03 15:21:00,67.1,39.3,29.65,WSW,248,1.6,1.6,36,0.00,,---,0.00,VWS V13.01,2013-05-03 19:21:00,
2013-05-03 15:22:00,67.1,39.3,29.65,SW,225,0.0,1.6,36,0.00,,---,0.00,VWS V13.01,2013-05-03 19:22:00,
2013-05-03 15:24:00,67.6,39.0,29.65,SSE,158,1.3,1.3,35,0.00,,---,0.00,VWS V13.01,2013-05-03 19:24:00,
2013-05-03 15:25:00,67.6,39.0,29.65,SE,135,1.3,1.3,35,0.00,,---,0.00,VWS V13.01,2013-05-03 19:25:00,
2013-05-03 15:26:00,67.6,39.0,29.65,South,180,2.5,2.5,35,0.00,,---,0.00,VWS V13.01,2013-05-03 19:26:00,
2013-05-03 15:27:00,67.6,39.0,29.65,SSW,202,4.7,4.7,35,0.00,,---,0.00,VWS V13.01,2013-05-03 19:27:00,
2013-05-03 15:29:00,67.6,39.0,29.65,SSW,202,1.6,1.6,35,0.00,,---,0.00,VWS V13.01,2013-05-03 19:29:00,
2013-05-03 15:30:00,67.6,39.0,29.65,SSW,202,1.6,1.6,35,0.00,,---,0.00,VWS V13.01,2013-05-03 19:30:00,
2013-05-03 15:31:00,67.8,40.6,29.65,SSW,202,4.3,4.3,37,0.00,,---,0.00,VWS V13.01,2013-05-03 19:31:00,
2013-05-03 15:32:00,67.8,40.6,29.65,SE,135,2.5,4.3,37,0.00,,---,0.00,VWS V13.01,2013-05-03 19:32:00,
2013-05-03 15:34:00,67.6,40.5,29.65,SE,135,6.0,6.0,37,0.00,,---,0.00,VWS V13.01,2013-05-03 19:34:00,
2013-05-03 15:36:00,67.6,40.5,29.65,South,180,5.4,5.4,37,0.00,,---,0.00,VWS V13.01,2013-05-03 19:36:00,
2013-05-03 15:37:00,67.5,40.3,29.65,South,180,1.6,1.6,37,0.00,,---,0.00,VWS V13.01,2013-05-03 19:37:00,
2013-05-03 15:40:00,67.5,40.3,29.65,SSE,158,5.4,5.4,37,0.00,,---,0.00,VWS V13.01,2013-05-03 19:40:00,
2013-05-03 15:41:00,67.5,40.3,29.65,South,180,0.9,2.0,37,0.00,,---,0.00,VWS V13.01,2013-05-03 19:41:00,
2013-05-03 15:42:00,67.5,40.3,29.65,SSW,202,0.0,0.9,37,0.00,,---,0.00,VWS V13.01,2013-05-03 19:42:00,
2013-05-03 15:45:00,67.5,40.3,29.65,South,180,3.1,3.1,37,0.00,,---,0.00,VWS V13.01,2013-05-03 19:45:00,
2013-05-03 15:46:00,67.5,40.3,29.65,SSE,158,0.0,0.0,37,0.00,,---,0.00,VWS V13.01,2013-05-03 19:46:00,
2013-05-03 15:47:00,66.4,38.6,29.65,SSE,158,0.0,0.0,36,0.00,,---,0.00,VWS V13.01,2013-05-03 19:47:00,
2013-05-03 15:50:00,66.4,38.6,29.65,SSE,158,2.5,2.5,36,0.00,,---,0.00,VWS V13.01,2013-05-03 19:50:00,
2013-05-03 15:51:00,66.4,39.3,29.65,South,180,2.9,2.9,37,0.00,,---,0.00,VWS V13.01,2013-05-03 19:51:00,
2013-05-03 15:52:00,66.4,39.3,29.65,South,180,2.9,2.9,37,0.00,,---,0.00,VWS V13.01,2013-05-03 19:52:00,
2013-05-03 15:55:00,66.4,39.3,29.65,South,180,0.0,0.9,37,0.00,,---,0.00,VWS V13.01,2013-05-03 19:55:00,
2013-05-03 15:56:00,66.4,39.3,29.65,WSW,248,1.1,2.2,37,0.00,,---,0.00,VWS V13.01,2013-05-03 19:56:00,
2013-05-03 15:57:00,66.4,39.3,29.65,WSW,248,1.1,2.2,37,0.00,,---,0.00,VWS V13.01,2013-05-03 19:57:00,
2013-05-03 16:00:00,66.4,39.3,29.65,SSE,158,3.4,3.4,37,0.00,,---,0.00,VWS V13.01,2013-05-03 20:00:00,
2013-05-03 16:01:00,66.6,39.5,29.65,ENE,68,1.6,1.6,37,0.00,,---,0.00,VWS V13.01,2013-05-03 20:01:00,
2013-05-03 16:02:00,66.6,39.5,29.65,SSE,158,0.0,1.6,37,0.00,,---,0.00,VWS V13.01,2013-05-03 20:02:00,
2013-05-03 16:05:00,66.6,39.5,29.65,SSE,158,0.9,4.3,37,0.00,,---,0.00,VWS V13.01,2013-05-03 20:05:00,
2013-05-03 16:07:00,66.6,39.5,29.65,WSW,248,1.6,1.6,37,0.00,,---,0.00,VWS V13.01,2013-05-03 20:07:00,
2013-05-03 16:10:00,66.6,39.5,29.65,SSE,158,3.8,3.8,37,0.00,,---,0.00,VWS V13.01,2013-05-03 20:10:00,
2013-05-03 16:12:00,66.6,39.5,29.65,SSW,202,0.0,2.7,37,0.00,,---,0.00,VWS V13.01,2013-05-03 20:12:00,
2013-05-03 16:13:00,66.6,39.5,29.65,SSW,202,0.0,2.7,37,0.00,,---,0.00,VWS V13.01,2013-05-03 20:13:00,
2013-05-03 16:15:00,66.6,39.5,29.65,SSW,202,0.0,1.1,37,0.00,,---,0.00,VWS V13.01,2013-05-03 20:15:00,
2013-05-03 16:17:00,66.6,39.5,29.65,SSW,202,0.0,0.0,37,0.00,,---,0.00,VWS V13.01,2013-05-03 20:17:00,
2013-05-03 16:18:00,66.6,39.5,29.65,SE,135,0.0,0.0,37,0.00,,---,0.00,VWS V13.01,2013-05-03 20:18:00,
2013-05-03 16:20:00,66.6,39.5,29.65,South,180,2.0,2.0,37,0.00,,---,0.00,VWS V13.01,2013-05-03 20:20:00,
2013-05-03 16:22:00,65.7,39.4,29.65,South,180,2.5,2.9,38,0.00,,---,0.00,VWS V13.01,2013-05-03 20:22:00,
2013-05-03 16:23:00,65.7,39.4,29.65,South,180,2.5,2.5,38,0.00,,---,0.00,VWS V13.01,2013-05-03 20:23:00,
2013-05-03 16:25:00,65.5,39.2,29.65,SSE,158,1.6,1.6,38,0.00,,---,0.00,VWS V13.01,2013-05-03 20:25:00,
2013-05-03 16:27:00,65.5,39.2,29.65,SSE,158,1.1,1.1,38,0.00,,---,0.00,VWS V13.01,2013-05-03 20:27:00,
2013-05-03 16:28:00,65.5,39.2,29.65,South,180,1.6,1.6,38,0.00,,---,0.00,VWS V13.01,2013-05-03 20:28:00,
2013-05-03 16:30:00,65.5,39.2,29.65,ESE,112,1.3,1.3,38,0.00,,---,0.00,VWS V13.01,2013-05-03 20:30:00,
2013-05-03 16:32:00,65.5,39.2,29.65,South,180,0.0,0.0,38,0.00,,---,0.00,VWS V13.01,2013-05-03 20:32:00,
2013-05-03 16:33:00,65.5,39.2,29.65,SSW,202,0.9,0.9,38,0.00,,---,0.00,VWS V13.01,2013-05-03 20:33:00,
2013-05-03 16:35:00,65.5,39.2,29.65,SE,135,0.0,2.0,38,0.00,,---,0.00,VWS V13.01,2013-05-03 20:35:00,
2013-05-03 16:37:00,65.1,38.9,29.65,South,180,2.9,3.1,38,0.00,,---,0.00,VWS V13.01,2013-05-03 20:37:00,
2013-05-03 16:38:00,65.1,38.9,29.65,South,180,2.9,2.9,38,0.00,,---,0.00,VWS V13.01,2013-05-03 20:38:00,
2013-05-03 16:40:00,65.1,38.9,29.65,South,180,1.3,2.7,38,0.00,,---,0.00,VWS V13.01,2013-05-03 20:40:00,
2013-05-03 16:42:00,65.1,38.9,29.65,SSW,202,3.6,3.6,38,0.00,,---,0.00,VWS V13.01,2013-05-03 20:42:00,
2013-05-03 16:43:00,65.1,38.9,29.65,SSE,158,3.1,3.6,38,0.00,,---,0.00,VWS V13.01,2013-05-03 20:43:00,
2013-05-03 16:45:00,65.1,38.9,29.65,SSW,202,0.0,3.4,38,0.00,,---,0.00,VWS V13.01,2013-05-03 20:45:00,
2013-05-03 16:47:00,65.1,38.9,29.65,SSE,158,4.7,4.7,38,0.00,,---,0.00,VWS V13.01,2013-05-03 20:47:00,
2013-05-03 16:48:00,65.1,38.9,29.65,SSE,158,4.7,4.7,38,0.00,,---,0.00,VWS V13.01,2013-05-03 20:48:00,
2013-05-03 16:50:00,65.1,38.9,29.65,NNW,338,2.5,2.5,38,0.00,,---,0.00,VWS V13.01,2013-05-03 20:50:00,
2013-05-03 16:53:00,65.1,38.9,29.65,South,180,1.6,2.5,38,0.00,,---,0.00,VWS V13.01,2013-05-03 20:53:00,
2013-05-03 16:54:00,65.1,38.9,29.65,South,180,3.1,3.1,38,0.00,,---,0.00,VWS V13.01,2013-05-03 20:54:00,
2013-05-03 16:56:00,65.1,38.9,29.65,SSE,158,0.0,3.6,38,0.00,,---,0.00,VWS V13.01,2013-05-03 20:56:00,
2013-05-03 16:58:00,65.1,38.9,29.62,East,90,3.4,3.4,38,0.00,,---,0.00,VWS V13.01,2013-05-03 20:58:00,
2013-05-03 16:59:00,65.1,38.9,29.62,SSE,158,2.5,2.5,38,0.00,,---,0.00,VWS V13.01,2013-05-03 20:59:00,
2013-05-03 17:01:00,64.6,38.4,29.62,South,180,0.0,0.0,38,0.00,,---,0.00,VWS V13.01,2013-05-03 21:01:00,
2013-05-03 17:03:00,64.6,38.4,29.62,SSW,202,1.6,1.6,38,0.00,,---,0.00,VWS V13.01,2013-05-03 21:03:00,
2013-05-03 17:04:00,64.6,38.4,29.62,SSW,202,1.6,1.6,38,0.00,,---,0.00,VWS V13.01,2013-05-03 21:04:00,
2013-05-03 17:06:00,64.6,38.4,29.62,SSW,202,0.0,2.9,38,0.00,,---,0.00,VWS V13.01,2013-05-03 21:06:00,
2013-05-03 17:08:00,64.6,38.4,29.62,South,180,0.0,0.0,38,0.00,,---,0.00,VWS V13.01,2013-05-03 21:08:00,
2013-05-03 17:09:00,64.6,38.4,29.62,SW,225,0.9,0.9,38,0.00,,---,0.00,VWS V13.01,2013-05-03 21:09:00,
2013-05-03 17:11:00,64.4,38.3,29.62,SSW,202,0.0,0.9,38,0.00,,---,0.00,VWS V13.01,2013-05-03 21:11:00,
2013-05-03 17:13:00,64.4,38.3,29.62,South,180,0.0,0.0,38,0.00,,---,0.00,VWS V13.01,2013-05-03 21:13:00,
2013-05-03 17:14:00,64.4,38.3,29.62,SW,225,2.7,2.7,38,0.00,,---,0.00,VWS V13.01,2013-05-03 21:14:00,
2013-05-03 17:15:00,64.4,38.3,29.62,South,180,0.0,0.0,38,0.00,,---,0.00,VWS V13.01,2013-05-03 21:15:00,
2013-05-03 17:16:00,64.4,38.3,29.62,NW,315,0.0,0.0,38,0.00,,---,0.00,VWS V13.01,2013-05-03 21:16:00,
2013-05-03 17:18:00,64.0,38.6,29.62,SSW,202,0.9,1.1,39,0.00,,---,0.00,VWS V13.01,2013-05-03 21:18:00,
2013-05-03 17:19:00,64.0,38.6,29.62,SSE,158,0.0,0.9,39,0.00,,---,0.00,VWS V13.01,2013-05-03 21:19:00,
2013-05-03 17:20:00,64.0,38.6,29.62,SSE,158,1.6,1.6,39,0.00,,---,0.00,VWS V13.01,2013-05-03 21:20:00,
2013-05-03 17:21:00,64.0,38.6,29.62,SSE,158,1.3,1.6,39,0.00,,---,0.00,VWS V13.01,2013-05-03 21:21:00,
2013-05-03 17:23:00,64.0,38.6,29.62,WSW,248,0.9,0.9,39,0.00,,---,0.00,VWS V13.01,2013-05-03 21:23:00,
2013-05-03 17:24:00,64.0,38.6,29.62,South,180,4.3,4.3,39,0.00,,---,0.00,VWS V13.01,2013-05-03 21:24:00,
2013-05-03 17:25:00,64.0,38.6,29.62,West,270,1.3,1.3,39,0.00,,---,0.00,VWS V13.01,2013-05-03 21:25:00,
2013-05-03 17:26:00,64.0,38.6,29.62,SSW,202,0.9,1.1,39,0.00,,---,0.00,VWS V13.01,2013-05-03 21:26:00,
2013-05-03 17:28:00,64.0,38.6,29.62,SSW,202,0.0,0.0,39,0.00,,---,0.00,VWS V13.01,2013-05-03 21:28:00,
2013-05-03 17:29:00,64.0,38.6,29.62,SSW,202,0.0,0.0,39,0.00,,---,0.00,VWS V13.01,2013-05-03 21:29:00,
2013-05-03 17:30:00,64.0,38.6,29.62,South,180,0.9,0.9,39,0.00,,---,0.00,VWS V13.01,2013-05-03 21:30:00,
2013-05-03 17:31:00,64.0,38.6,29.62,SSE,158,2.5,2.5,39,0.00,,---,0.00,VWS V13.01,2013-05-03 21:31:00,
2013-05-03 17:33:00,63.7,38.3,29.62,SSE,158,1.1,1.1,39,0.00,,---,0.00,VWS V13.01,2013-05-03 21:33:00,
2013-05-03 17:34:00,63.7,38.3,29.62,ESE,112,2.2,2.2,39,0.00,,---,0.00,VWS V13.01,2013-05-03 21:34:00,
2013-05-03 17:35:00,63.7,38.3,29.62,ESE,112,2.2,2.2,39,0.00,,---,0.00,VWS V13.01,2013-05-03 21:35:00,
2013-05-03 17:37:00,63.7,38.3,29.62,SSE,158,2.0,2.0,39,0.00,,---,0.00,VWS V13.01,2013-05-03 21:37:00,
2013-05-03 17:39:00,63.7,38.3,29.62,SSW,202,0.9,0.9,39,0.00,,---,0.00,VWS V13.01,2013-05-03 21:39:00,
2013-05-03 17:40:00,63.7,38.3,29.62,SSE,158,1.1,1.1,39,0.00,,---,0.00,VWS V13.01,2013-05-03 21:40:00,
2013-05-03 17:41:00,63.7,38.3,29.62,SSW,202,0.0,1.1,39,0.00,,---,0.00,VWS V13.01,2013-05-03 21:41:00,
2013-05-03 17:42:00,63.7,38.3,29.62,South,180,2.5,2.5,39,0.00,,---,0.00,VWS V13.01,2013-05-03 21:42:00,
2013-05-03 17:44:00,63.7,38.3,29.62,South,180,0.0,0.0,39,0.00,,---,0.00,VWS V13.01,2013-05-03 21:44:00,
2013-05-03 17:45:00,63.7,38.3,29.62,SSE,158,2.5,2.5,39,0.00,,---,0.00,VWS V13.01,2013-05-03 21:45:00,
2013-05-03 17:46:00,63.7,38.3,29.62,SE,135,1.6,2.5,39,0.00,,---,0.00,VWS V13.01,2013-05-03 21:46:00,
2013-05-03 17:47:00,63.7,38.3,29.62,SSE,158,2.5,3.4,39,0.00,,---,0.00,VWS V13.01,2013-05-03 21:47:00,
2013-05-03 17:49:00,63.7,38.3,29.62,SSE,158,0.9,4.0,39,0.00,,---,0.00,VWS V13.01,2013-05-03 21:49:00,
2013-05-03 17:50:00,63.7,38.3,29.62,WSW,248,0.0,0.0,39,0.00,,---,0.00,VWS V13.01,2013-05-03 21:50:00,
2013-05-03 17:51:00,63.7,38.3,29.62,SSE,158,0.0,0.0,39,0.00,,---,0.00,VWS V13.01,2013-05-03 21:51:00,
2013-05-03 17:52:00,63.7,38.3,29.62,South,180,1.6,1.6,39,0.00,,---,0.00,VWS V13.01,2013-05-03 21:52:00,
2013-05-03 17:55:00,63.7,38.3,29.62,South,180,0.0,0.0,39,0.00,,---,0.00,VWS V13.01,2013-05-03 21:55:00,
2013-05-03 17:56:00,63.7,38.3,29.62,SSE,158,0.9,0.9,39,0.00,,---,0.00,VWS V13.01,2013-05-03 21:56:00,
2013-05-03 17:57:00,63.7,38.3,29.62,South,180,1.6,2.5,39,0.00,,---,0.00,VWS V13.01,2013-05-03 21:57:00,
2013-05-03 18:00:00,63.7,38.3,29.62,SSE,158,0.0,0.0,39,0.00,,---,0.00,VWS V13.01,2013-05-03 22:00:00,
2013-05-03 18:01:00,63.7,38.3,29.62,South,180,0.0,0.0,39,0.00,,---,0.00,VWS V13.01,2013-05-03 22:01:00,
2013-05-03 18:03:00,63.7,38.3,29.62,WSW,248,0.0,0.0,39,0.00,,---,0.00,VWS V13.01,2013-05-03 22:03:00,
2013-05-03 18:05:00,62.2,37.0,29.62,SSE,158,0.0,0.0,39,0.00,,---,0.00,VWS V13.01,2013-05-03 22:05:00,
2013-05-03 18:06:00,62.2,37.0,29.62,SSE,158,0.0,0.0,39,0.00,,---,0.00,VWS V13.01,2013-05-03 22:06:00,
2013-05-03 18:08:00,62.2,37.0,29.62,South,180,0.0,0.0,39,0.00,,---,0.00,VWS V13.01,2013-05-03 22:08:00,
2013-05-03 18:10:00,62.2,37.0,29.62,SSW,202,0.0,0.0,39,0.00,,---,0.00,VWS V13.01,2013-05-03 22:10:00,
2013-05-03 18:11:00,62.2,37.0,29.62,South,180,0.0,0.0,39,0.00,,---,0.00,VWS V13.01,2013-05-03 22:11:00,
2013-05-03 18:13:00,62.2,37.0,29.62,SSW,202,0.0,0.0,39,0.00,,---,0.00,VWS V13.01,2013-05-03 22:13:00,
2013-05-03 18:15:00,62.2,37.0,29.62,South,180,0.0,0.9,39,0.00,,---,0.00,VWS V13.01,2013-05-03 22:15:00,
2013-05-03 18:16:00,62.2,37.0,29.62,South,180,0.0,0.9,39,0.00,,---,0.00,VWS V13.01,2013-05-03 22:16:00,
2013-05-03 18:19:00,62.2,37.0,29.62,SSE,158,2.0,2.0,39,0.00,,---,0.00,VWS V13.01,2013-05-03 22:19:00,
2013-05-03 18:20:00,62.2,37.0,29.62,SSE,158,2.9,2.9,39,0.00,,---,0.00,VWS V13.01,2013-05-03 22:20:00,
2013-05-03 18:21:00,62.2,37.0,29.62,SE,135,2.0,2.0,39,0.00,,---,0.00,VWS V13.01,2013-05-03 22:21:00,
2013-05-03 18:24:00,61.5,37.0,29.62,SSE,158,3.4,3.4,40,0.00,,---,0.00,VWS V13.01,2013-05-03 22:24:00,
2013-05-03 18:25:00,61.5,37.0,29.62,SSE,158,0.0,1.1,40,0.00,,---,0.00,VWS V13.01,2013-05-03 22:25:00,
2013-05-03 18:26:00,61.3,36.8,29.62,SSE,158,0.0,0.0,40,0.00,,---,0.00,VWS V13.01,2013-05-03 22:26:00,
2013-05-03 18:29:00,61.3,36.8,29.62,SSE,158,1.3,1.3,40,0.00,,---,0.00,VWS V13.01,2013-05-03 22:29:00,
2013-05-03 18:30:00,61.3,36.8,29.62,SSE,158,2.0,2.0,40,0.00,,---,0.00,VWS V13.01,2013-05-03 22:30:00,
2013-05-03 18:31:00,61.3,36.8,29.62,SE,135,1.3,2.0,40,0.00,,---,0.00,VWS V13.01,2013-05-03 22:31:00,
2013-05-03 18:34:00,61.3,36.8,29.62,SE,135,2.0,2.0,40,0.00,,---,0.00,VWS V13.01,2013-05-03 22:34:00,
2013-05-03 18:35:00,61.3,36.8,29.62,SSE,158,0.0,2.0,40,0.00,,---,0.00,VWS V13.01,2013-05-03 22:35:00,
2013-05-03 18:36:00,61.3,36.8,29.62,South,180,1.6,1.6,40,0.00,,---,0.00,VWS V13.01,2013-05-03 22:36:00,
2013-05-03 18:39:00,61.3,36.8,29.62,South,180,0.0,3.4,40,0.00,,---,0.00,VWS V13.01,2013-05-03 22:39:00,
2013-05-03 18:41:00,60.6,36.8,29.62,SSE,158,0.0,2.7,41,0.00,,---,0.00,VWS V13.01,2013-05-03 22:41:00,
2013-05-03 18:42:00,60.6,36.8,29.62,SSE,158,2.2,2.7,41,0.00,,---,0.00,VWS V13.01,2013-05-03 22:42:00,
2013-05-03 18:44:00,60.6,36.8,29.62,South,180,1.3,2.9,41,0.00,,---,0.00,VWS V13.01,2013-05-03 22:44:00,
2013-05-03 18:46:00,60.6,36.8,29.62,SSE,158,2.0,2.0,41,0.00,,---,0.00,VWS V13.01,2013-05-03 22:46:00,
2013-05-03 18:47:00,60.6,36.8,29.62,SSE,158,2.2,2.2,41,0.00,,---,0.00,VWS V13.01,2013-05-03 22:47:00,
2013-05-03 18:49:00,60.3,37.1,29.62,SSE,158,1.6,1.6,42,0.00,,---,0.00,VWS V13.01,2013-05-03 22:49:00,
2013-05-03 18:51:00,60.3,37.1,29.62,SSE,158,2.9,2.9,42,0.00,,---,0.00,VWS V13.01,2013-05-03 22:51:00,
2013-05-03 18:52:00,60.3,37.1,29.62,South,180,0.0,2.9,42,0.00,,---,0.00,VWS V13.01,2013-05-03 22:52:00,
2013-05-03 18:54:00,59.9,36.8,29.62,SSE,158,4.7,6.0,42,0.00,,---,0.00,VWS V13.01,2013-05-03 22:54:00,
2013-05-03 18:56:00,59.9,36.8,29.62,SSE,158,4.3,4.3,42,0.00,,---,0.00,VWS V13.01,2013-05-03 22:56:00,
2013-05-03 18:57:00,59.9,36.8,29.62,SSE,158,4.3,4.3,42,0.00,,---,0.00,VWS V13.01,2013-05-03 22:57:00,
2013-05-03 18:59:00,59.9,36.8,29.62,SSE,158,3.1,3.1,42,0.00,,---,0.00,VWS V13.01,2013-05-03 22:59:00,
2013-05-03 19:01:00,59.9,36.8,29.62,South,180,2.9,2.9,42,0.00,,---,0.00,VWS V13.01,2013-05-03 23:01:00,
2013-05-03 19:02:00,59.9,36.8,29.62,South,180,1.3,1.3,42,0.00,,---,0.00,VWS V13.01,2013-05-03 23:02:00,
2013-05-03 19:04:00,59.4,37.5,29.62,SSE,158,1.1,1.1,44,0.00,,---,0.00,VWS V13.01,2013-05-03 23:04:00,
2013-05-03 19:06:00,59.4,37.5,29.62,South,180,1.1,1.1,44,0.00,,---,0.00,VWS V13.01,2013-05-03 23:06:00,
2013-05-03 19:07:00,59.4,37.5,29.62,South,180,1.1,1.1,44,0.00,,---,0.00,VWS V13.01,2013-05-03 23:07:00,
2013-05-03 19:08:00,59.4,37.5,29.62,SE,135,2.0,2.0,44,0.00,,---,0.00,VWS V13.01,2013-05-03 23:08:00,
2013-05-03 19:09:00,59.4,37.5,29.62,SSE,158,2.5,2.5,44,0.00,,---,0.00,VWS V13.01,2013-05-03 23:09:00,
2013-05-03 19:11:00,59.4,37.5,29.62,SSE,158,1.3,1.3,44,0.00,,---,0.00,VWS V13.01,2013-05-03 23:11:00,
2013-05-03 19:12:00,59.4,37.5,29.62,SE,135,1.6,1.6,44,0.00,,---,0.00,VWS V13.01,2013-05-03 23:12:00,
2013-05-03 19:13:00,59.4,37.5,29.62,SSW,202,1.3,1.6,44,0.00,,---,0.00,VWS V13.01,2013-05-03 23:13:00,
2013-05-03 19:15:00,59.4,37.5,29.62,SSE,158,1.1,2.5,44,0.00,,---,0.00,VWS V13.01,2013-05-03 23:15:00,
2013-05-03 19:17:00,59.4,37.5,29.62,South,180,0.0,0.0,44,0.00,,---,0.00,VWS V13.01,2013-05-03 23:17:00,
2013-05-03 19:18:00,58.5,37.2,29.62,South,180,1.3,1.3,45,0.00,,---,0.00,VWS V13.01,2013-05-03 23:18:00,
2013-05-03 19:20:00,58.5,37.2,29.62,SE,135,0.0,0.0,45,0.00,,---,0.00,VWS V13.01,2013-05-03 23:20:00,
2013-05-03 19:22:00,58.5,37.2,29.62,SSE,158,1.3,1.3,45,0.00,,---,0.00,VWS V13.01,2013-05-03 23:22:00,
2013-05-03 19:23:00,58.5,37.2,29.62,South,180,0.9,1.3,45,0.00,,---,0.00,VWS V13.01,2013-05-03 23:23:00,
2013-05-03 19:25:00,57.9,36.7,29.62,South,180,0.0,0.0,45,0.00,,---,0.00,VWS V13.01,2013-05-03 23:25:00,
2013-05-03 19:27:00,57.7,36.6,29.62,SSE,158,0.0,0.0,45,0.00,,---,0.00,VWS V13.01,2013-05-03 23:27:00,
2013-05-03 19:28:00,57.7,36.6,29.62,SSE,158,0.0,0.0,45,0.00,,---,0.00,VWS V13.01,2013-05-03 23:28:00,
2013-05-03 19:30:00,57.7,36.6,29.62,South,180,2.9,2.9,45,0.00,,---,0.00,VWS V13.01,2013-05-03 23:30:00,
2013-05-03 19:32:00,57.7,36.6,29.62,South,180,1.1,1.1,45,0.00,,---,0.00,VWS V13.01,2013-05-03 23:32:00,
2013-05-03 19:33:00,57.7,36.6,29.62,South,180,0.0,0.0,45,0.00,,---,0.00,VWS V13.01,2013-05-03 23:33:00,
2013-05-03 19:35:00,57.7,36.6,29.62,SSE,158,2.5,2.5,45,0.00,,---,0.00,VWS V13.01,2013-05-03 23:35:00,
2013-05-03 19:38:00,57.7,36.6,29.62,SSE,158,1.6,1.6,45,0.00,,---,0.00,VWS V13.01,2013-05-03 23:38:00,
2013-05-03 19:39:00,57.7,36.6,29.62,South,180,0.0,0.0,45,0.00,,---,0.00,VWS V13.01,2013-05-03 23:39:00,
2013-05-03 19:40:00,57.7,36.6,29.65,SSE,158,2.0,2.0,45,0.00,,---,0.00,VWS V13.01,2013-05-03 23:40:00,
2013-05-03 19:43:00,57.7,36.6,29.65,SSE,158,0.0,2.2,45,0.00,,---,0.00,VWS V13.01,2013-05-03 23:43:00,
2013-05-03 19:44:00,57.7,36.6,29.65,SSE,158,0.0,0.0,45,0.00,,---,0.00,VWS V13.01,2013-05-03 23:44:00,
2013-05-03 19:45:00,57.7,36.6,29.65,SSE,158,0.0,0.0,45,0.00,,---,0.00,VWS V13.01,2013-05-03 23:45:00,
2013-05-03 19:48:00,57.7,36.6,29.65,SSE,158,0.0,0.0,45,0.00,,---,0.00,VWS V13.01,2013-05-03 23:48:00,
2013-05-03 19:49:00,57.7,36.6,29.65,SSE,158,0.0,0.0,45,0.00,,---,0.00,VWS V13.01,2013-05-03 23:49:00,
2013-05-03 19:50:00,57.7,36.6,29.65,SSE,158,0.0,0.0,45,0.00,,---,0.00,VWS V13.01,2013-05-03 23:50:00,
2013-05-03 19:53:00,57.7,36.6,29.65,SSE,158,0.0,0.0,45,0.00,,---,0.00,VWS V13.01,2013-05-03 23:53:00,
2013-05-03 19:54:00,57.7,36.6,29.65,SSE,158,0.0,0.0,45,0.00,,---,0.00,VWS V13.01,2013-05-03 23:54:00,
2013-05-03 19:55:00,57.7,36.6,29.65,SSE,158,0.0,0.0,45,0.00,,---,0.00,VWS V13.01,2013-05-03 23:55:00,
2013-05-03 19:58:00,57.7,36.6,29.65,SSE,158,0.0,0.0,45,0.00,,---,0.00,VWS V13.01,2013-05-03 23:58:00,
2013-05-03 19:59:00,57.7,36.6,29.65,ESE,112,0.0,0.0,45,0.00,,---,0.00,VWS V13.01,2013-05-03 23:59:00,
2013-05-03 20:00:00,57.7,36.6,29.65,SE,135,0.0,0.0,45,0.00,,---,0.00,VWS V13.01,2013-05-04 00:00:00,
2013-05-03 20:03:00,57.7,36.6,29.65,SSE,158,0.0,0.0,45,0.00,,---,0.00,VWS V13.01,2013-05-04 00:03:00,
2013-05-03 20:04:00,57.7,36.6,29.65,SSE,158,0.0,0.0,45,0.00,,---,0.00,VWS V13.01,2013-05-04 00:04:00,
2013-05-03 20:05:00,57.7,36.6,29.65,SE,135,1.1,1.1,45,0.00,,---,0.00,VWS V13.01,2013-05-04 00:05:00,
2013-05-03 20:08:00,57.7,36.6,29.65,SE,135,0.0,0.0,45,0.00,,---,0.00,VWS V13.01,2013-05-04 00:08:00,
2013-05-03 20:09:00,57.7,36.6,29.65,SE,135,0.0,0.0,45,0.00,,---,0.00,VWS V13.01,2013-05-04 00:09:00,
2013-05-03 20:10:00,57.7,36.6,29.65,SE,135,0.0,0.0,45,0.00,,---,0.00,VWS V13.01,2013-05-04 00:10:00,
2013-05-03 20:13:00,55.2,35.9,29.65,SE,135,0.0,0.0,48,0.00,,---,0.00,VWS V13.01,2013-05-04 00:13:00,
2013-05-03 20:14:00,55.2,35.9,29.65,SE,135,0.0,0.0,48,0.00,,---,0.00,VWS V13.01,2013-05-04 00:14:00,
2013-05-03 20:15:00,55.0,35.7,29.65,SE,135,0.0,0.0,48,0.00,,---,0.00,VWS V13.01,2013-05-04 00:15:00,
2013-05-03 20:18:00,55.0,35.7,29.65,SE,135,0.0,0.0,48,0.00,,---,0.00,VWS V13.01,2013-05-04 00:18:00,
2013-05-03 20:19:00,55.0,35.7,29.65,SE,135,0.0,0.0,48,0.00,,---,0.00,VWS V13.01,2013-05-04 00:19:00,
2013-05-03 20:20:00,54.7,35.9,29.65,SE,135,0.0,0.0,49,0.00,,---,0.00,VWS V13.01,2013-05-04 00:20:00,
2013-05-03 20:24:00,54.5,35.8,29.65,SE,135,0.0,0.0,49,0.00,,---,0.00,VWS V13.01,2013-05-04 00:24:00,
2013-05-03 20:25:00,54.5,35.8,29.65,SE,135,0.0,0.0,49,0.00,,---,0.00,VWS V13.01,2013-05-04 00:25:00,
2013-05-03 20:29:00,54.3,36.1,29.65,SE,135,0.0,0.0,50,0.00,,---,0.00,VWS V13.01,2013-05-04 00:29:00,
2013-05-03 20:30:00,54.3,36.1,29.65,SE,135,0.0,0.0,50,0.00,,---,0.00,VWS V13.01,2013-05-04 00:30:00,
2013-05-03 20:34:00,54.0,35.8,29.65,SE,135,0.0,0.0,50,0.00,,---,0.00,VWS V13.01,2013-05-04 00:34:00,
2013-05-03 20:35:00,54.0,35.8,29.65,SE,135,0.0,0.0,50,0.00,,---,0.00,VWS V13.01,2013-05-04 00:35:00,
2013-05-03 20:36:00,53.8,36.1,29.65,SE,135,0.0,0.0,51,0.00,,---,0.00,VWS V13.01,2013-05-04 00:36:00,
2013-05-03 20:39:00,53.8,36.1,29.65,SE,135,0.0,0.0,51,0.00,,---,0.00,VWS V13.01,2013-05-04 00:39:00,
2013-05-03 20:40:00,53.8,36.1,29.65,SE,135,0.0,0.0,51,0.00,,---,0.00,VWS V13.01,2013-05-04 00:40:00,
2013-05-03 20:41:00,53.4,36.2,29.65,SE,135,0.0,0.0,52,0.00,,---,0.00,VWS V13.01,2013-05-04 00:41:00,
2013-05-03 20:44:00,53.2,36.1,29.65,SE,135,0.0,0.0,52,0.00,,---,0.00,VWS V13.01,2013-05-04 00:44:00,
2013-05-03 20:45:00,53.2,36.1,29.65,SE,135,0.0,0.0,52,0.00,,---,0.00,VWS V13.01,2013-05-04 00:45:00,
2013-05-03 20:46:00,53.2,36.1,29.65,SE,135,0.0,0.0,52,0.00,,---,0.00,VWS V13.01,2013-05-04 00:46:00,
2013-05-03 20:49:00,53.1,35.9,29.65,SE,135,0.0,0.0,52,0.00,,---,0.00,VWS V13.01,2013-05-04 00:49:00,
2013-05-03 20:50:00,53.1,35.9,29.65,SE,135,0.0,0.0,52,0.00,,---,0.00,VWS V13.01,2013-05-04 00:50:00,
2013-05-03 20:51:00,53.1,35.9,29.65,SE,135,0.0,0.0,52,0.00,,---,0.00,VWS V13.01,2013-05-04 00:51:00,
2013-05-03 20:54:00,53.1,35.9,29.65,SE,135,0.0,0.0,52,0.00,,---,0.00,VWS V13.01,2013-05-04 00:54:00,
2013-05-03 20:55:00,52.9,35.8,29.65,SE,135,0.0,0.0,52,0.00,,---,0.00,VWS V13.01,2013-05-04 00:55:00,
2013-05-03 20:56:00,52.9,35.8,29.65,SE,135,0.0,0.0,52,0.00,,---,0.00,VWS V13.01,2013-05-04 00:56:00,
2013-05-03 20:59:00,52.9,35.8,29.65,SE,135,0.0,0.0,52,0.00,,---,0.00,VWS V13.01,2013-05-04 00:59:00,
2013-05-03 21:00:00,52.9,35.8,29.65,SE,135,0.0,0.0,52,0.00,,---,0.00,VWS V13.01,2013-05-04 01:00:00,
2013-05-03 21:01:00,52.9,35.8,29.65,SE,135,0.0,0.0,52,0.00,,---,0.00,VWS V13.01,2013-05-04 01:01:00,
2013-05-03 21:02:00,52.9,35.8,29.65,SE,135,0.0,0.0,52,0.00,,---,0.00,VWS V13.01,2013-05-04 01:02:00,
2013-05-03 21:05:00,52.9,35.8,29.65,SE,135,0.0,0.0,52,0.00,,---,0.00,VWS V13.01,2013-05-04 01:05:00,
2013-05-03 21:06:00,52.9,35.8,29.65,SE,135,0.0,0.0,52,0.00,,---,0.00,VWS V13.01,2013-05-04 01:06:00,
2013-05-03 21:07:00,52.9,35.8,29.65,SE,135,0.0,0.0,52,0.00,,---,0.00,VWS V13.01,2013-05-04 01:07:00,
2013-05-03 21:10:00,52.9,35.8,29.65,SE,135,0.0,0.0,52,0.00,,---,0.00,VWS V13.01,2013-05-04 01:10:00,
2013-05-03 21:11:00,52.9,35.8,29.65,SE,135,0.0,0.0,52,0.00,,---,0.00,VWS V13.01,2013-05-04 01:11:00,
2013-05-03 21:12:00,52.9,35.8,29.65,SE,135,0.0,0.0,52,0.00,,---,0.00,VWS V13.01,2013-05-04 01:12:00,
2013-05-03 21:15:00,52.5,36.4,29.65,SE,135,0.0,0.0,54,0.00,,---,0.00,VWS V13.01,2013-05-04 01:15:00,
2013-05-03 21:16:00,52.5,36.4,29.65,SE,135,0.0,0.0,54,0.00,,---,0.00,VWS V13.01,2013-05-04 01:16:00,
2013-05-03 21:17:00,52.5,36.4,29.65,SE,135,0.0,0.0,54,0.00,,---,0.00,VWS V13.01,2013-05-04 01:17:00,
2013-05-03 21:20:00,52.5,36.4,29.65,SE,135,0.0,0.0,54,0.00,,---,0.00,VWS V13.01,2013-05-04 01:20:00,
2013-05-03 21:21:00,52.5,36.4,29.65,SE,135,0.0,0.0,54,0.00,,---,0.00,VWS V13.01,2013-05-04 01:21:00,
2013-05-03 21:22:00,52.5,36.4,29.65,SE,135,0.0,0.0,54,0.00,,---,0.00,VWS V13.01,2013-05-04 01:22:00,
2013-05-03 21:25:00,52.5,36.4,29.68,SE,135,0.0,0.0,54,0.00,,---,0.00,VWS V13.01,2013-05-04 01:25:00,
2013-05-03 21:26:00,52.5,36.4,29.68,SE,135,0.0,0.0,54,0.00,,---,0.00,VWS V13.01,2013-05-04 01:26:00,
2013-05-03 21:27:00,52.5,36.4,29.68,SE,135,0.0,0.0,54,0.00,,---,0.00,VWS V13.01,2013-05-04 01:27:00,
2013-05-03 21:28:00,52.0,36.8,29.68,SE,135,0.0,0.0,56,0.00,,---,0.00,VWS V13.01,2013-05-04 01:28:00,
2013-05-03 21:30:00,52.0,36.8,29.68,SE,135,0.0,0.0,56,0.00,,---,0.00,VWS V13.01,2013-05-04 01:30:00,
2013-05-03 21:31:00,52.0,36.8,29.68,SE,135,0.0,0.0,56,0.00,,---,0.00,VWS V13.01,2013-05-04 01:31:00,
2013-05-03 21:32:00,52.0,36.8,29.68,SE,135,0.0,0.0,56,0.00,,---,0.00,VWS V13.01,2013-05-04 01:32:00,
2013-05-03 21:33:00,52.0,36.8,29.68,SE,135,0.0,0.0,56,0.00,,---,0.00,VWS V13.01,2013-05-04 01:33:00,
2013-05-03 21:35:00,52.0,36.8,29.68,SE,135,0.0,0.0,56,0.00,,---,0.00,VWS V13.01,2013-05-04 01:35:00,
2013-05-03 21:37:00,52.0,36.8,29.68,SE,135,0.0,0.0,56,0.00,,---,0.00,VWS V13.01,2013-05-04 01:37:00,
2013-05-03 21:38:00,52.0,36.8,29.68,SE,135,0.0,0.0,56,0.00,,---,0.00,VWS V13.01,2013-05-04 01:38:00,
2013-05-03 21:40:00,52.0,36.8,29.68,SE,135,0.0,0.0,56,0.00,,---,0.00,VWS V13.01,2013-05-04 01:40:00,
2013-05-03 21:42:00,51.4,37.2,29.68,SE,135,0.0,0.0,58,0.00,,---,0.00,VWS V13.01,2013-05-04 01:42:00,
2013-05-03 21:43:00,51.4,37.2,29.68,SE,135,0.0,0.0,58,0.00,,---,0.00,VWS V13.01,2013-05-04 01:43:00,
2013-05-03 21:45:00,51.4,37.2,29.68,SE,135,0.0,0.0,58,0.00,,---,0.00,VWS V13.01,2013-05-04 01:45:00,
2013-05-03 21:47:00,51.4,37.2,29.68,SE,135,0.0,0.0,58,0.00,,---,0.00,VWS V13.01,2013-05-04 01:47:00,
2013-05-03 21:48:00,51.4,37.2,29.68,SE,135,0.0,0.0,58,0.00,,---,0.00,VWS V13.01,2013-05-04 01:48:00,
2013-05-03 21:50:00,51.4,37.2,29.68,SE,135,0.0,0.0,58,0.00,,---,0.00,VWS V13.01,2013-05-04 01:50:00,
2013-05-03 21:52:00,51.4,37.2,29.68,SE,135,0.0,0.0,58,0.00,,---,0.00,VWS V13.01,2013-05-04 01:52:00,
2013-05-03 21:53:00,51.4,37.2,29.68,SE,135,0.0,0.0,58,0.00,,---,0.00,VWS V13.01,2013-05-04 01:53:00,
2013-05-03 21:56:00,51.4,37.2,29.68,SE,135,0.0,0.0,58,0.00,,---,0.00,VWS V13.01,2013-05-04 01:56:00,
2013-05-03 21:57:00,50.9,37.5,29.68,SE,135,0.0,0.0,60,0.00,,---,0.00,VWS V13.01,2013-05-04 01:57:00,
2013-05-03 21:58:00,50.9,37.5,29.68,SE,135,0.0,0.0,60,0.00,,---,0.00,VWS V13.01,2013-05-04 01:58:00,
2013-05-03 22:01:00,50.9,37.5,29.68,SE,135,0.0,0.0,60,0.00,,---,0.00,VWS V13.01,2013-05-04 02:01:00,
2013-05-03 22:02:00,50.9,37.5,29.68,SE,135,0.0,0.0,60,0.00,,---,0.00,VWS V13.01,2013-05-04 02:02:00,
2013-05-03 22:03:00,50.9,37.5,29.68,SE,135,0.0,0.0,60,0.00,,---,0.00,VWS V13.01,2013-05-04 02:03:00,
2013-05-03 22:06:00,50.9,37.5,29.68,SE,135,0.0,0.0,60,0.00,,---,0.00,VWS V13.01,2013-05-04 02:06:00,
2013-05-03 22:07:00,50.9,37.5,29.68,SE,135,0.0,0.0,60,0.00,,---,0.00,VWS V13.01,2013-05-04 02:07:00,
2013-05-03 22:08:00,50.9,37.5,29.68,SE,135,0.0,0.0,60,0.00,,---,0.00,VWS V13.01,2013-05-04 02:08:00,
2013-05-03 22:09:00,50.9,37.5,29.68,SE,135,0.0,0.0,60,0.00,,---,0.00,VWS V13.01,2013-05-04 02:09:00,
2013-05-03 22:11:00,50.4,37.4,29.68,SE,135,0.0,0.0,61,0.00,,---,0.00,VWS V13.01,2013-05-04 02:11:00,
2013-05-03 22:12:00,50.4,37.4,29.68,SE,135,0.0,0.0,61,0.00,,---,0.00,VWS V13.01,2013-05-04 02:12:00,
2013-05-03 22:13:00,50.4,37.4,29.68,SE,135,0.0,0.0,61,0.00,,---,0.00,VWS V13.01,2013-05-04 02:13:00,
2013-05-03 22:14:00,50.4,37.4,29.68,SE,135,0.0,0.0,61,0.00,,---,0.00,VWS V13.01,2013-05-04 02:14:00,
2013-05-03 22:16:00,50.4,37.4,29.68,SE,135,0.0,0.0,61,0.00,,---,0.00,VWS V13.01,2013-05-04 02:16:00,
2013-05-03 22:17:00,50.4,37.4,29.68,SE,135,0.0,0.0,61,0.00,,---,0.00,VWS V13.01,2013-05-04 02:17:00,
2013-05-03 22:18:00,50.4,37.4,29.68,SE,135,0.0,0.0,61,0.00,,---,0.00,VWS V13.01,2013-05-04 02:18:00,
2013-05-03 22:19:00,50.4,37.4,29.68,SE,135,0.0,0.0,61,0.00,,---,0.00,VWS V13.01,2013-05-04 02:19:00,
2013-05-03 22:21:00,50.0,37.5,29.68,SE,135,0.0,0.0,62,0.00,,---,0.00,VWS V13.01,2013-05-04 02:21:00,
2013-05-03 22:22:00,50.0,37.5,29.68,SE,135,0.0,0.0,62,0.00,,---,0.00,VWS V13.01,2013-05-04 02:22:00,
2013-05-03 22:23:00,50.0,37.5,29.68,SE,135,0.0,0.0,62,0.00,,---,0.00,VWS V13.01,2013-05-04 02:23:00,
2013-05-03 22:24:00,50.0,37.5,29.68,SE,135,0.0,0.0,62,0.00,,---,0.00,VWS V13.01,2013-05-04 02:24:00,
2013-05-03 22:25:00,50.0,37.5,29.68,SE,135,0.0,0.0,62,0.00,,---,0.00,VWS V13.01,2013-05-04 02:25:00,
2013-05-03 22:26:00,50.0,37.5,29.68,SE,135,0.0,0.0,62,0.00,,---,0.00,VWS V13.01,2013-05-04 02:26:00,
2013-05-03 22:27:00,50.0,37.5,29.68,SE,135,0.0,0.0,62,0.00,,---,0.00,VWS V13.01,2013-05-04 02:27:00,
2013-05-03 22:28:00,50.0,37.5,29.68,SE,135,0.0,0.0,62,0.00,,---,0.00,VWS V13.01,2013-05-04 02:28:00,
2013-05-03 22:29:00,50.0,37.5,29.68,SE,135,0.0,0.0,62,0.00,,---,0.00,VWS V13.01,2013-05-04 02:29:00,
2013-05-03 22:30:00,50.0,37.5,29.68,SE,135,0.0,0.0,62,0.00,,---,0.00,VWS V13.01,2013-05-04 02:30:00,
2013-05-03 22:31:00,50.0,37.5,29.68,SE,135,0.0,0.0,62,0.00,,---,0.00,VWS V13.01,2013-05-04 02:31:00,
2013-05-03 22:33:00,50.0,37.5,29.68,SE,135,0.0,0.0,62,0.00,,---,0.00,VWS V13.01,2013-05-04 02:33:00,
2013-05-03 22:34:00,50.0,37.5,29.68,SE,135,0.0,0.0,62,0.00,,---,0.00,VWS V13.01,2013-05-04 02:34:00,
2013-05-03 22:35:00,50.0,37.5,29.68,SE,135,0.0,0.0,62,0.00,,---,0.00,VWS V13.01,2013-05-04 02:35:00,
2013-05-03 22:36:00,49.5,37.8,29.68,SE,135,0.0,0.0,64,0.00,,---,0.00,VWS V13.01,2013-05-04 02:36:00,
2013-05-03 22:38:00,49.5,37.8,29.68,SE,135,0.0,0.0,64,0.00,,---,0.00,VWS V13.01,2013-05-04 02:38:00,
2013-05-03 22:39:00,49.5,37.8,29.68,SE,135,0.0,0.0,64,0.00,,---,0.00,VWS V13.01,2013-05-04 02:39:00,
2013-05-03 22:40:00,49.5,37.8,29.68,SE,135,0.0,0.0,64,0.00,,---,0.00,VWS V13.01,2013-05-04 02:40:00,
2013-05-03 22:41:00,49.5,37.8,29.68,SE,135,0.0,0.0,64,0.00,,---,0.00,VWS V13.01,2013-05-04 02:41:00,
2013-05-03 22:43:00,49.5,37.8,29.68,SE,135,0.0,0.0,64,0.00,,---,0.00,VWS V13.01,2013-05-04 02:43:00,
2013-05-03 22:44:00,49.5,37.8,29.68,SE,135,0.0,0.0,64,0.00,,---,0.00,VWS V13.01,2013-05-04 02:44:00,
2013-05-03 22:45:00,49.5,37.8,29.68,SE,135,0.0,0.0,64,0.00,,---,0.00,VWS V13.01,2013-05-04 02:45:00,
2013-05-03 22:46:00,49.5,37.8,29.68,SE,135,0.0,0.0,64,0.00,,---,0.00,VWS V13.01,2013-05-04 02:46:00,
2013-05-03 22:48:00,48.9,37.7,29.68,SE,135,0.0,0.0,65,0.00,,---,0.00,VWS V13.01,2013-05-04 02:48:00,
2013-05-03 22:49:00,48.9,37.7,29.68,SE,135,0.0,0.0,65,0.00,,---,0.00,VWS V13.01,2013-05-04 02:49:00,
2013-05-03 22:50:00,48.9,37.7,29.68,SE,135,0.0,0.0,65,0.00,,---,0.00,VWS V13.01,2013-05-04 02:50:00,
2013-05-03 22:51:00,48.7,37.9,29.68,SE,135,0.0,0.0,66,0.00,,---,0.00,VWS V13.01,2013-05-04 02:51:00,
2013-05-03 22:53:00,48.7,37.9,29.68,SE,135,0.0,0.0,66,0.00,,---,0.00,VWS V13.01,2013-05-04 02:53:00,
2013-05-03 22:54:00,48.7,37.9,29.68,SE,135,0.0,0.0,66,0.00,,---,0.00,VWS V13.01,2013-05-04 02:54:00,
2013-05-03 22:56:00,48.7,37.9,29.68,SE,135,0.0,0.0,66,0.00,,---,0.00,VWS V13.01,2013-05-04 02:56:00,
2013-05-03 22:58:00,48.7,37.9,29.68,SE,135,0.0,0.0,66,0.00,,---,0.00,VWS V13.01,2013-05-04 02:58:00,
2013-05-03 22:59:00,48.7,37.9,29.68,SE,135,0.0,0.0,66,0.00,,---,0.00,VWS V13.01,2013-05-04 02:59:00,
2013-05-03 23:01:00,48.7,37.9,29.68,SE,135,0.0,0.0,66,0.00,,---,0.00,VWS V13.01,2013-05-04 03:01:00,
2013-05-03 23:04:00,48.7,37.9,29.68,SE,135,0.0,0.0,66,0.00,,---,0.00,VWS V13.01,2013-05-04 03:04:00,
2013-05-03 23:05:00,48.7,37.9,29.68,SE,135,0.0,0.0,66,0.00,,---,0.00,VWS V13.01,2013-05-04 03:05:00,
2013-05-03 23:06:00,48.7,37.9,29.68,SE,135,0.0,0.0,66,0.00,,---,0.00,VWS V13.01,2013-05-04 03:06:00,
2013-05-03 23:09:00,48.7,37.9,29.68,SE,135,0.0,0.0,66,0.00,,---,0.00,VWS V13.01,2013-05-04 03:09:00,
2013-05-03 23:10:00,48.7,37.9,29.68,SE,135,0.0,0.0,66,0.00,,---,0.00,VWS V13.01,2013-05-04 03:10:00,
2013-05-03 23:11:00,48.7,37.9,29.68,SE,135,0.0,0.0,66,0.00,,---,0.00,VWS V13.01,2013-05-04 03:11:00,
2013-05-03 23:14:00,48.7,37.9,29.68,SE,135,0.0,0.0,66,0.00,,---,0.00,VWS V13.01,2013-05-04 03:14:00,
2013-05-03 23:15:00,48.0,37.6,29.68,SE,135,0.0,0.0,67,0.00,,---,0.00,VWS V13.01,2013-05-04 03:15:00,
2013-05-03 23:16:00,48.0,37.6,29.68,SE,135,0.0,0.0,67,0.00,,---,0.00,VWS V13.01,2013-05-04 03:16:00,
2013-05-03 23:19:00,48.0,37.6,29.68,SE,135,0.0,0.0,67,0.00,,---,0.00,VWS V13.01,2013-05-04 03:19:00,
2013-05-03 23:20:00,47.7,37.6,29.68,SE,135,0.0,0.0,68,0.00,,---,0.00,VWS V13.01,2013-05-04 03:20:00,
2013-05-03 23:22:00,47.7,37.6,29.68,SE,135,0.0,0.0,68,0.00,,---,0.00,VWS V13.01,2013-05-04 03:22:00,
2013-05-03 23:24:00,47.7,37.6,29.68,SE,135,0.0,0.0,68,0.00,,---,0.00,VWS V13.01,2013-05-04 03:24:00,
2013-05-03 23:25:00,47.7,37.6,29.68,SE,135,0.0,0.0,68,0.00,,---,0.00,VWS V13.01,2013-05-04 03:25:00,
2013-05-03 23:26:00,47.7,37.6,29.68,SE,135,0.0,0.0,68,0.00,,---,0.00,VWS V13.01,2013-05-04 03:26:00,
2013-05-03 23:27:00,47.7,37.6,29.68,SE,135,0.0,0.0,68,0.00,,---,0.00,VWS V13.01,2013-05-04 03:27:00,
2013-05-03 23:29:00,47.5,37.8,29.68,SE,135,0.0,0.0,69,0.00,,---,0.00,VWS V13.01,2013-05-04 03:29:00,
2013-05-03 23:30:00,47.5,37.8,29.68,SE,135,0.0,0.0,69,0.00,,---,0.00,VWS V13.01,2013-05-04 03:30:00,
2013-05-03 23:31:00,47.5,37.8,29.68,SE,135,0.0,0.0,69,0.00,,---,0.00,VWS V13.01,2013-05-04 03:31:00,
2013-05-03 23:32:00,47.5,37.8,29.68,SE,135,0.0,0.0,69,0.00,,---,0.00,VWS V13.01,2013-05-04 03:32:00,
2013-05-03 23:34:00,47.3,37.7,29.68,SE,135,0.0,0.0,69,0.00,,---,0.00,VWS V13.01,2013-05-04 03:34:00,
2013-05-03 23:35:00,47.3,37.7,29.68,SE,135,0.0,0.0,69,0.00,,---,0.00,VWS V13.01,2013-05-04 03:35:00,
2013-05-03 23:37:00,47.3,37.7,29.68,SE,135,0.0,0.0,69,0.00,,---,0.00,VWS V13.01,2013-05-04 03:37:00,
2013-05-03 23:39:00,47.3,37.7,29.68,SE,135,0.0,0.0,69,0.00,,---,0.00,VWS V13.01,2013-05-04 03:39:00,
2013-05-03 23:40:00,47.3,37.7,29.68,SE,135,0.0,0.0,69,0.00,,---,0.00,VWS V13.01,2013-05-04 03:40:00,
2013-05-03 23:42:00,47.3,37.7,29.68,SE,135,0.0,0.0,69,0.00,,---,0.00,VWS V13.01,2013-05-04 03:42:00,
2013-05-03 23:44:00,47.1,37.5,29.68,SE,135,0.0,0.0,69,0.00,,---,0.00,VWS V13.01,2013-05-04 03:44:00,
2013-05-03 23:45:00,47.1,37.5,29.68,SE,135,0.0,0.0,69,0.00,,---,0.00,VWS V13.01,2013-05-04 03:45:00,
2013-05-03 23:47:00,47.1,37.5,29.68,SE,135,0.0,0.0,69,0.00,,---,0.00,VWS V13.01,2013-05-04 03:47:00,
2013-05-03 23:48:00,47.1,37.5,29.68,SE,135,0.0,0.0,69,0.00,,---,0.00,VWS V13.01,2013-05-04 03:48:00,
2013-05-03 23:49:00,47.1,37.5,29.68,SE,135,0.0,0.0,69,0.00,,---,0.00,VWS V13.01,2013-05-04 03:49:00,
2013-05-03 23:50:00,47.1,37.5,29.68,SE,135,0.0,0.0,69,0.00,,---,0.00,VWS V13.01,2013-05-04 03:50:00,
2013-05-03 23:52:00,47.1,37.5,29.68,SE,135,0.0,0.0,69,0.00,,---,0.00,VWS V13.01,2013-05-04 03:52:00,
2013-05-03 23:53:00,47.1,37.5,29.68,SE,135,0.0,0.0,69,0.00,,---,0.00,VWS V13.01,2013-05-04 03:53:00,
2013-05-03 23:55:00,47.1,37.5,29.68,SE,135,0.0,0.0,69,0.00,,---,0.00,VWS V13.01,2013-05-04 03:55:00,
2013-05-03 23:58:00,47.1,37.5,29.65,SE,135,0.0,0.0,69,0.00,,---,0.00,VWS V13.01,2013-05-04 03:58:00,